W2GRK-15 Weather Reports


Display with metric or nautical units.
time (UTC)temp
F
wind
direction
speed
MPH
gust
MPH
rain 1hr
in
rain 24hr
in
rain mn
in
humidity
%
barometer
mb
20260508111417 48 0.0 2.0 0.00 0.00 0.00 81 1013.7
20260508111349 48 160 1.0 2.0 0.00 0.00 0.00 81 1013.5
20260508111224 48 154 0.0 2.0 0.00 0.00 0.00 81 1013.7
20260508111120 48 172 1.0 2.0 0.00 0.00 0.00 81 1013.6
20260508111016 48 172 2.0 3.0 0.00 0.00 0.00 81 1013.6
20260508110928 47 176 3.0 3.0 0.00 0.00 0.00 82 1013.5
20260508110843 47 196 1.0 2.0 0.00 0.00 0.00 82 1013.7
20260508110719 47 180 1.0 2.0 0.00 0.00 0.00 82 1013.8
20260508110630 47 133 1.0 3.0 0.00 0.00 0.00 83 1013.7
20260508110546 47 159 1.0 2.0 0.00 0.00 0.00 84 1013.7
20260508110422 46 294 0.0 2.0 0.00 0.00 0.00 84 1013.7
20260508110338 46 176 1.0 2.0 0.00 0.00 0.00 84 1013.6
20260508110229 46 170 1.0 2.0 0.00 0.00 0.00 85 1013.5
20260508110125 46 178 2.0 3.0 0.00 0.00 0.00 85 1013.5
20260508110040 46 179 2.0 3.0 0.00 0.00 0.00 86 1013.6
20260508105916 46 179 1.0 3.0 0.00 0.00 0.00 86 1013.5
20260508105847 45 173 1.0 2.0 0.00 0.00 0.00 87 1013.5
20260508105723 45 182 1.0 2.0 0.00 0.00 0.00 87 1013.6
20260508105619 45 328 2.0 3.0 0.00 0.00 0.00 87 1013.5
20260508105530 45 353 1.0 3.0 0.00 0.00 0.00 88 1013.6
20260508105506 45 24 1.0 2.0 0.00 0.00 0.00 88 1013.5
20260508105322 44 354 0.0 2.0 0.00 0.00 0.00 88 1013.6
20260508105217 44 33 1.0 2.0 0.00 0.00 0.00 88 1013.4
20260508105149 44 44 1.0 2.0 0.00 0.00 0.00 88 1013.4
20260508105025 44 30 2.0 3.0 0.00 0.00 0.00 89 1013.3
20260508104920 44 45 2.0 3.0 0.00 0.00 0.00 89 1013.5
20260508104816 44 32 1.0 2.0 0.00 0.00 0.00 89 1013.5
20260508104727 44 57 1.0 2.0 0.00 0.00 0.00 89 1013.3
20260508104643 44 70 0.0 2.0 0.00 0.00 0.00 89 1013.5
20260508104519 44 57 1.0 2.0 0.00 0.00 0.00 89 1013.4
20260508104430 44 33 1.0 2.0 0.00 0.00 0.00 89 1013.4
20260508104326 44 0.0 2.0 0.00 0.00 0.00 89 1013.4
20260508104242 44 0.0 2.0 0.00 0.00 0.00 89 1013.4
20260508104137 44 174 0.0 2.0 0.00 0.00 0.00 89 1013.3
20260508104029 44 144 0.0 2.0 0.00 0.00 0.00 89 1013.4
20260508103925 44 144 1.0 2.0 0.00 0.00 0.00 89 1013.3
20260508103820 44 0.0 2.0 0.00 0.00 0.00 88 1013.2
20260508103715 44 138 1.0 2.0 0.00 0.00 0.00 88 1013.5
20260508103627 44 120 1.0 2.0 0.00 0.00 0.00 88 1013.4
20260508103523 43 166 1.0 2.0 0.00 0.00 0.00 88 1013.3
20260508103419 43 173 1.0 2.0 0.00 0.00 0.00 88 1013.3
20260508103330 43 137 1.0 2.0 0.00 0.00 0.00 88 1013.4
20260508103226 43 106 0.0 2.0 0.00 0.00 0.00 88 1013.5
20260508103141 43 123 1.0 2.0 0.00 0.00 0.00 88 1013.3
20260508103017 44 115 0.0 1.0 0.00 0.00 0.00 88 1013.3
20260508102949 44 133 0.0 2.0 0.00 0.00 0.00 88 1013.3
20260508102824 44 116 1.0 2.0 0.00 0.00 0.00 88 1013.3
20260508102720 44 152 1.0 2.0 0.00 0.00 0.00 88 1013.2
20260508102616 44 122 0.0 2.0 0.00 0.00 0.00 88 1013.4
20260508102528 44 0.0 2.0 0.00 0.00 0.00 88 1013.2
20260508102423 44 0.0 2.0 0.00 0.00 0.00 88 1013.3
20260508102319 44 173 0.0 1.0 0.00 0.00 0.00 88 1013.2
20260508102230 44 0.0 0.0 0.00 0.00 0.00 88 1013.2
20260508102126 44 0.0 1.0 0.00 0.00 0.00 88 1013.1
20260508102022 44 136 0.0 2.0 0.00 0.00 0.00 88 1013.1
20260508101917 44 0.0 1.0 0.00 0.00 0.00 88 1013.1
20260508101829 44 202 0.0 1.0 0.00 0.00 0.00 88 1013.2
20260508101725 44 136 0.0 2.0 0.00 0.00 0.00 88 1013.0
20260508101621 44 141 2.0 2.0 0.00 0.00 0.00 88 1013.1
20260508101516 44 148 1.0 2.0 0.00 0.00 0.00 88 1013.1
20260508101428 44 133 2.0 2.0 0.00 0.00 0.00 88 1013.1
20260508101323 44 170 1.0 2.0 0.00 0.00 0.00 87 1012.9
20260508101219 44 166 1.0 2.0 0.00 0.00 0.00 87 1013.1
20260508101131 44 173 0.0 2.0 0.00 0.00 0.00 87 1013.1
20260508101026 44 162 1.0 2.0 0.00 0.00 0.00 87 1013.0
20260508100922 44 176 2.0 2.0 0.00 0.00 0.00 87 1013.1
20260508100818 44 160 1.0 2.0 0.00 0.00 0.00 86 1012.9
20260508100729 44 132 2.0 2.0 0.00 0.00 0.00 86 1013.0
20260508100625 44 129 2.0 2.0 0.00 0.00 0.00 86 1012.9
20260508100540 44 125 1.0 2.0 0.00 0.00 0.00 86 1013.0
20260508100416 44 121 2.0 3.0 0.00 0.00 0.00 86 1012.9
20260508100328 44 104 1.0 3.0 0.00 0.00 0.00 86 1012.7
20260508100223 44 130 1.0 2.0 0.00 0.00 0.00 86 1012.9
20260508100119 44 0.0 1.0 0.00 0.00 0.00 86 1012.7
20260508100031 44 123 0.0 2.0 0.00 0.00 0.00 85 1012.9
20260508095926 44 0.0 2.0 0.00 0.00 0.00 85 1012.8
20260508095842 44 147 0.0 2.0 0.00 0.00 0.00 85 1012.9
20260508095718 44 158 0.0 1.0 0.00 0.00 0.00 85 1013.0
20260508095629 44 151 1.0 2.0 0.00 0.00 0.00 85 1012.9
20260508095525 44 154 1.0 2.0 0.00 0.00 0.00 85 1012.9
20260508095421 45 155 1.0 2.0 0.00 0.00 0.00 85 1012.9
20260508095316 45 144 2.0 2.0 0.00 0.00 0.00 85 1013.0
20260508095228 45 136 2.0 2.0 0.00 0.00 0.00 84 1013.0
20260508095124 45 129 2.0 3.0 0.00 0.00 0.00 84 1013.0
20260508095039 45 125 1.0 2.0 0.00 0.00 0.00 84 1013.1
20260508094915 45 181 1.0 2.0 0.00 0.00 0.00 84 1013.1
20260508094827 45 191 1.0 2.0 0.00 0.00 0.00 83 1012.9
20260508094722 45 191 1.0 2.0 0.00 0.00 0.00 83 1013.0
20260508094618 45 151 1.0 2.0 0.00 0.00 0.00 83 1012.8
20260508094530 45 161 1.0 2.0 0.00 0.00 0.00 83 1012.9
20260508094425 45 87 1.0 2.0 0.00 0.00 0.00 83 1012.8
20260508094341 45 72 1.0 2.0 0.00 0.00 0.00 83 1013.1
20260508094216 45 75 1.0 2.0 0.00 0.00 0.00 83 1013.0
20260508094148 45 68 1.0 2.0 0.00 0.00 0.00 82 1013.0
20260508094044 45 163 0.0 2.0 0.00 0.00 0.00 82 1013.1
20260508093919 45 0.0 1.0 0.00 0.00 0.00 82 1013.0
20260508093815 45 142 1.0 2.0 0.00 0.00 0.00 82 1012.9
20260508093807 46 97 2.0 2.0 0.00 0.00 0.00 82 1013.1
20260508093622 46 138 0.0 1.0 0.00 0.00 0.00 82 1012.9
20260508093518 46 142 1.0 1.0 0.00 0.00 0.00 82 1013.1
20260508093429 46 0.0 1.0 0.00 0.00 0.00 82 1013.1
20260508093325 46 112 0.0 1.0 0.00 0.00 0.00 81 1013.0
20260508093221 46 112 0.0 2.0 0.00 0.00 0.00 81 1012.9
20260508093117 46 93 1.0 2.0 0.00 0.00 0.00 81 1013.0
20260508093028 46 0.0 0.0 0.00 0.00 0.00 80 1012.9
20260508092924 46 114 0.0 1.0 0.00 0.00 0.00 80 1012.9
20260508092840 46 0.0 1.0 0.00 0.00 0.00 80 1012.9
20260508092715 46 0.0 1.0 0.00 0.00 0.00 80 1013.0
20260508092627 46 0.0 1.0 0.00 0.00 0.00 80 1013.0
20260508092523 46 152 1.0 2.0 0.00 0.00 0.00 80 1012.8
20260508092418 46 0.0 1.0 0.00 0.00 0.00 80 1013.1
20260508092330 46 139 1.0 2.0 0.00 0.00 0.00 80 1013.0
20260508092225 46 63 1.0 2.0 0.00 0.00 0.00 80 1012.9
20260508092121 46 119 1.0 3.0 0.00 0.00 0.00 80 1013.1
20260508092020 46 142 1.0 3.0 0.00 0.00 0.00 80 1012.8
20260508091928 46 223 1.0 2.0 0.00 0.00 0.00 79 1012.7
20260508091824 46 308 1.0 3.0 0.00 0.00 0.00 80 1012.9
20260508091719 46 159 1.0 2.0 0.00 0.00 0.00 79 1012.9
20260508091631 46 132 0.0 2.0 0.00 0.00 0.00 79 1012.8
20260508091526 46 92 1.0 2.0 0.00 0.00 0.00 79 1012.9
20260508091422 47 119 1.0 2.0 0.00 0.00 0.00 79 1012.6
20260508091318 47 60 1.0 2.0 0.00 0.00 0.00 79 1012.8
20260508091229 46 28 2.0 2.0 0.00 0.00 0.00 79 1012.8
20260508091125 47 80 1.0 2.0 0.00 0.00 0.00 79 1012.7
20260508091021 47 133 1.0 2.0 0.00 0.00 0.00 79 1012.8
20260508090916 47 336 0.0 2.0 0.00 0.00 0.00 79 1012.6
20260508090828 47 31 0.0 1.0 0.00 0.00 0.00 78 1012.7
20260508090744 47 0.0 1.0 0.00 0.00 0.00 78 1012.9
20260508090619 47 0.0 1.0 0.00 0.00 0.00 78 1012.7
20260508090531 47 130 0.0 2.0 0.00 0.00 0.00 78 1012.5
20260508090426 47 124 1.0 2.0 0.00 0.00 0.00 78 1012.5
20260508090322 47 132 1.0 2.0 0.00 0.00 0.00 78 1012.5
20260508090218 47 145 1.0 3.0 0.00 0.00 0.00 78 1012.6
20260508090129 47 122 2.0 3.0 0.00 0.00 0.00 78 1012.6
20260508090025 47 153 1.0 2.0 0.00 0.00 0.00 78 1012.5
20260508085920 47 168 1.0 2.0 0.00 0.00 0.00 78 1012.5
20260508085836 47 171 1.0 2.0 0.00 0.00 0.00 77 1012.4
20260508085728 47 165 1.0 2.0 0.00 0.00 0.00 77 1012.5
20260508085623 47 170 1.0 2.0 0.00 0.00 0.00 77 1012.5
20260508085539 48 180 0.0 2.0 0.00 0.00 0.00 77 1012.6
20260508085431 48 0.0 2.0 0.00 0.00 0.00 77 1012.5
20260508085346 48 78 1.0 2.0 0.00 0.00 0.00 77 1012.5
20260508085222 48 43 2.0 2.0 0.00 0.00 0.00 77 1012.3
20260508085118 48 105 1.0 2.0 0.00 0.00 0.00 77 1012.4
20260508085029 48 95 1.0 2.0 0.00 0.00 0.00 76 1012.3
20260508084925 48 29 1.0 2.0 0.00 0.00 0.00 76 1012.2
20260508084820 48 343 2.0 3.0 0.00 0.00 0.00 76 1012.3
20260508084736 48 356 2.0 3.0 0.00 0.00 0.00 76 1012.4
20260508084628 48 360 1.0 2.0 0.00 0.00 0.00 76 1012.2
20260508084523 48 356 1.0 3.0 0.00 0.00 0.00 76 1012.3
20260508084419 48 69 1.0 2.0 0.00 0.00 0.00 76 1012.0
20260508084331 48 21 2.0 3.0 0.00 0.00 0.00 76 1012.2
20260508084226 48 193 2.0 3.0 0.00 0.00 0.00 76 1012.1
20260508084122 48 163 2.0 3.0 0.00 0.00 0.00 76 1012.1
20260508084017 48 140 0.0 2.0 0.00 0.00 0.00 76 1012.2
20260508083929 48 38 0.0 2.0 0.00 0.00 0.00 76 1011.9
20260508083825 48 89 2.0 3.0 0.00 0.00 0.00 76 1011.9
20260508083740 48 82 3.0 4.0 0.00 0.00 0.00 76 1011.7
20260508083616 48 76 4.0 6.0 0.00 0.00 0.00 76 1011.8
20260508083548 48 92 2.0 5.0 0.00 0.00 0.00 76 1012.0
20260508083423 48 115 3.0 5.0 0.00 0.00 0.00 77 1011.9
20260508083319 48 84 2.0 3.0 0.00 0.00 0.00 76 1011.9
20260508083231 48 60 1.0 3.0 0.00 0.00 0.00 76 1012.1
20260508083126 48 73 0.0 2.0 0.00 0.00 0.00 76 1012.2
20260508083022 48 89 1.0 2.0 0.00 0.00 0.00 76 1012.2
20260508082917 48 152 2.0 3.0 0.00 0.00 0.00 76 1012.1
20260508082829 48 67 1.0 2.0 0.00 0.00 0.00 76 1012.0
20260508082725 48 347 1.0 3.0 0.00 0.00 0.00 76 1012.2
20260508082620 48 57 1.0 2.0 0.00 0.00 0.00 76 1012.2
20260508082556 48 4 1.0 4.0 0.00 0.01 0.00 76 1012.3
20260508082447 48 16 2.0 3.0 0.00 0.01 0.00 77 1012.2
20260508082323 48 180 1.0 2.0 0.00 0.01 0.00 77 1012.3
20260508082218 48 59 1.0 2.0 0.00 0.01 0.00 77 1012.4
20260508082130 48 156 1.0 2.0 0.00 0.01 0.00 77 1012.5
20260508082026 48 125 2.0 3.0 0.00 0.01 0.00 77 1012.4
20260508081921 48 118 2.0 3.0 0.00 0.01 0.00 77 1012.5
20260508081817 48 119 2.0 4.0 0.00 0.01 0.00 76 1012.4
20260508081729 48 52 3.0 4.0 0.00 0.02 0.00 76 1012.5
20260508081624 48 37 2.0 4.0 0.00 0.02 0.00 77 1012.5
20260508081520 48 331 2.0 3.0 0.00 0.02 0.00 76 1012.4
20260508081415 48 35 5.0 9.0 0.00 0.02 0.00 76 1012.5
20260508081347 48 339 3.0 7.0 0.00 0.02 0.00 76 1012.3
20260508081243 48 268 2.0 4.0 0.00 0.02 0.00 76 1012.5
20260508081118 48 28 2.0 4.0 0.00 0.02 0.00 76 1012.4
20260508081030 48 20 4.0 6.0 0.00 0.02 0.00 76 1012.3
20260508080926 48 31 2.0 3.0 0.00 0.02 0.00 76 1012.3
20260508080821 48 16 2.0 5.0 0.00 0.02 0.00 76 1012.5
20260508080737 48 45 3.0 5.0 0.00 0.02 0.00 76 1012.5
20260508080709 48 159 1.0 3.0 0.00 0.02 0.00 76 1012.5
20260508080524 48 63 2.0 4.0 0.00 0.02 0.00 76 1012.5
20260508080440 48 115 1.0 2.0 0.00 0.02 0.00 76 1012.5
20260508080315 48 178 1.0 2.0 0.00 0.02 0.00 76 1012.4
20260508080227 48 351 1.0 2.0 0.00 0.02 0.00 76 1012.6
20260508080123 48 205 1.0 2.0 0.00 0.02 0.00 76 1012.4
20260508080018 48 234 0.0 2.0 0.00 0.02 0.00 76 1012.5
20260508075950 48 7 2.0 3.0 0.00 0.02 0.00 76 1012.4
20260508075826 48 46 2.0 5.0 0.00 0.02 0.00 76 1012.4
20260508075721 49 302 2.0 3.0 0.00 0.02 0.00 75 1012.4
20260508075617 49 15 2.0 4.0 0.00 0.02 0.00 75 1012.3
20260508075529 49 39 2.0 4.0 0.00 0.02 0.00 75 1012.5
20260508075424 49 39 2.0 3.0 0.00 0.02 0.00 75 1012.4
20260508075320 49 53 3.0 4.0 0.00 0.02 0.00 75 1012.5
20260508075215 49 346 3.0 6.0 0.00 0.02 0.00 75 1012.4
20260508075147 49 26 3.0 4.0 0.00 0.02 0.00 75 1012.4
20260508075023 49 26 2.0 4.0 0.00 0.02 0.00 75 1012.4
20260508074918 49 309 1.0 3.0 0.00 0.02 0.00 75 1012.4
20260508074830 48 350 3.0 5.0 0.00 0.02 0.00 75 1012.5
20260508074726 49 344 2.0 4.0 0.00 0.02 0.00 75 1012.2
20260508074621 49 353 1.0 2.0 0.00 0.02 0.00 74 1012.3
20260508074517 48 5 1.0 3.0 0.00 0.02 0.00 74 1012.4
20260508074429 49 38 1.0 3.0 0.00 0.03 0.00 74 1012.2
20260508074344 49 22 2.0 3.0 0.00 0.03 0.00 74 1012.2
20260508074220 49 131 1.0 3.0 0.00 0.03 0.00 74 1012.1
20260508074115 48 24 1.0 3.0 0.00 0.03 0.00 74 1012.2
20260508074027 48 38 2.0 4.0 0.00 0.03 0.00 74 1012.2
20260508073923 48 87 2.0 3.0 0.00 0.04 0.00 74 1012.0
20260508073818 48 247 1.0 2.0 0.00 0.04 0.00 74 1012.0
20260508073730 48 20 2.0 3.0 0.00 0.04 0.00 74 1011.9
20260508073646 48 338 2.0 3.0 0.00 0.04 0.00 74 1011.8
20260508073541 48 21 3.0 5.0 0.00 0.04 0.00 74 1011.8
20260508073417 48 356 3.0 5.0 0.00 0.04 0.00 74 1011.7
20260508073329 48 19 3.0 5.0 0.00 0.04 0.00 74 1011.7
20260508073224 48 339 1.0 4.0 0.00 0.04 0.00 74 1011.8
20260508073120 48 340 4.0 5.0 0.00 0.04 0.00 74 1011.8
20260508073055 48 350 3.0 6.0 0.00 0.04 0.00 74 1011.7
20260508072927 48 355 2.0 4.0 0.00 0.04 0.00 74 1011.8
20260508072823 48 26 3.0 4.0 0.00 0.04 0.00 74 1011.7
20260508072718 48 20 2.0 3.0 0.00 0.04 0.00 74 1011.7
20260508072630 48 35 2.0 3.0 0.00 0.04 0.00 74 1011.7
20260508072526 48 31 2.0 4.0 0.00 0.04 0.00 74 1011.6
20260508072421 48 344 1.0 4.0 0.00 0.04 0.00 74 1011.6
20260508072317 48 43 4.0 5.0 0.00 0.04 0.00 73 1011.6
20260508072229 48 356 1.0 3.0 0.00 0.04 0.00 73 1011.6
20260508072124 48 340 1.0 4.0 0.00 0.04 0.00 73 1011.5
20260508072040 48 1 3.0 4.0 0.00 0.04 0.00 73 1011.6
20260508071915 48 5 1.0 3.0 0.00 0.04 0.00 73 1011.7
20260508071827 49 6 2.0 3.0 0.00 0.04 0.00 73 1011.7
20260508071743 49 113 1.0 3.0 0.00 0.04 0.00 73 1011.6
20260508071618 49 35 1.0 2.0 0.00 0.04 0.00 73 1011.4
20260508071530 49 60 2.0 3.0 0.00 0.04 0.00 72 1011.5
20260508071506 49 7 2.0 4.0 0.00 0.04 0.00 72 1011.5
20260508071321 49 345 3.0 5.0 0.00 0.04 0.00 72 1011.6
20260508071237 49 25 2.0 3.0 0.00 0.04 0.00 73 1011.6
20260508071129 49 55 1.0 2.0 0.00 0.04 0.00 72 1011.5
20260508071024 49 4 2.0 4.0 0.00 0.04 0.00 72 1011.4
20260508070920 49 19 2.0 4.0 0.00 0.04 0.00 72 1011.5
20260508070815 49 40 3.0 6.0 0.00 0.04 0.00 72 1011.6
20260508070727 49 40 2.0 4.0 0.00 0.04 0.00 72 1011.6
20260508070703 49 49 2.0 6.0 0.00 0.05 0.00 72 1011.5
20260508070538 49 64 2.0 5.0 0.00 0.05 0.00 72 1011.7
20260508070430 49 39 2.0 3.0 0.00 0.05 0.00 72 1011.6
20260508070326 49 39 1.0 3.0 0.00 0.05 0.00 72 1011.4
20260508070221 49 191 0.0 3.0 0.00 0.05 0.00 72 1011.6
20260508070117 49 342 2.0 3.0 0.00 0.06 0.00 72 1011.5
20260508070029 49 5 1.0 3.0 0.00 0.06 0.00 71 1011.6
20260508065924 49 2 2.0 5.0 0.00 0.06 0.00 71 1011.6
20260508065820 49 18 3.0 6.0 0.00 0.06 0.00 71 1011.6
20260508065715 49 347 4.0 5.0 0.00 0.06 0.00 72 1011.6
20260508065627 49 46 1.0 3.0 0.00 0.06 0.00 72 1011.7
20260508065523 49 0.0 2.0 0.00 0.06 0.00 71 1011.6
20260508065418 49 85 1.0 3.0 0.00 0.07 0.00 71 1011.7
20260508065330 50 3 2.0 4.0 0.00 0.07 0.00 71 1011.6
20260508065246 50 69 1.0 2.0 0.00 0.07 0.00 71 1011.5
20260508065121 50 29 2.0 2.0 0.00 0.07 0.00 71 1011.5
20260508065017 50 46 1.0 2.0 0.00 0.08 0.00 71 1011.6
20260508064929 50 9 2.0 5.0 0.00 0.08 0.00 71 1011.5
20260508064824 50 36 2.0 5.0 0.00 0.08 0.00 70 1011.5
20260508064719 50 50 1.0 4.0 0.00 0.08 0.00 70 1011.7
20260508064615 50 49 2.0 4.0 0.00 0.08 0.00 70 1011.6
20260508064527 50 68 1.0 4.0 0.00 0.08 0.00 70 1011.5
20260508064423 50 34 2.0 6.0 0.00 0.08 0.00 70 1011.4
20260508064318 50 128 1.0 2.0 0.00 0.08 0.00 70 1011.6
20260508064230 50 33 1.0 2.0 0.00 0.08 0.00 70 1011.6
20260508064125 50 80 1.0 2.0 0.00 0.08 0.00 70 1011.3
20260508064021 50 8 3.0 4.0 0.00 0.08 0.00 70 1011.5
20260508063957 50 48 2.0 3.0 0.00 0.09 0.00 70 1011.4
20260508063848 50 173 1.0 3.0 0.00 0.09 0.00 69 1011.6
20260508063724 50 351 2.0 3.0 0.00 0.09 0.00 69 1011.3
20260508063619 50 74 1.0 4.0 0.00 0.10 0.00 69 1011.4
20260508063515 50 7 1.0 4.0 0.00 0.10 0.00 69 1011.6
20260508063427 50 326 1.0 5.0 0.00 0.10 0.00 69 1011.5
20260508063322 50 33 3.0 4.0 0.00 0.11 0.00 69 1011.5
20260508063218 50 338 2.0 6.0 0.00 0.11 0.00 69 1011.4
20260508063130 50 360 2.0 6.0 0.00 0.11 0.00 68 1011.5
20260508063025 51 34 3.0 4.0 0.00 0.11 0.00 68 1011.4
20260508062921 51 41 2.0 4.0 0.00 0.11 0.00 68 1011.5
20260508062816 51 353 2.0 5.0 0.00 0.11 0.00 68 1011.4
20260508062728 51 28 3.0 4.0 0.00 0.12 0.00 68 1011.5
20260508062624 51 41 4.0 9.0 0.00 0.12 0.00 67 1011.4
20260508062520 51 54 3.0 5.0 0.00 0.12 0.00 67 1011.4
20260508062415 51 28 4.0 7.0 0.00 0.12 0.00 67 1011.6
20260508062327 51 348 2.0 4.0 0.00 0.13 0.00 67 1011.6
20260508062222 51 9 3.0 6.0 0.00 0.13 0.00 67 1011.6
20260508062118 51 350 4.0 7.0 0.00 0.13 0.00 67 1011.7
20260508062030 51 1 2.0 4.0 0.00 0.13 0.00 67 1011.6
20260508061925 51 56 2.0 5.0 0.00 0.13 0.00 67 1011.8
20260508061821 51 10 3.0 4.0 0.00 0.13 0.00 67 1011.7
20260508061716 51 32 3.0 7.0 0.00 0.13 0.00 66 1011.7
20260508061648 51 40 3.0 5.0 0.00 0.13 0.00 67 1011.8
20260508061524 51 344 3.0 4.0 0.00 0.13 0.00 66 1011.9
20260508061419 51 350 3.0 7.0 0.00 0.14 0.00 66 1011.7
20260508061315 51 1 3.0 8.0 0.00 0.14 0.00 67 1011.7
20260508061227 51 12 1.0 2.0 0.00 0.14 0.00 66 1011.7
20260508061122 51 20 2.0 2.0 0.00 0.14 0.00 67 1011.7
20260508061058 51 38 2.0 3.0 0.00 0.14 0.00 67 1011.6
20260508060929 51 19 2.0 4.0 0.00 0.14 0.00 66 1011.7
20260508060825 51 23 3.0 5.0 0.00 0.14 0.00 66 1011.8
20260508060721 51 10 3.0 5.0 0.00 0.15 0.00 66 1011.7
20260508060616 51 31 3.0 5.0 0.00 0.15 0.00 65 1011.8
20260508060528 52 15 3.0 8.0 0.00 0.15 0.00 66 1011.7
20260508060423 52 359 4.0 8.0 0.00 0.15 0.00 66 1011.7
20260508060319 52 27 2.0 3.0 0.00 0.16 0.00 66 1011.8
20260508060230 52 31 3.0 6.0 0.00 0.16 0.00 65 1011.7
20260508060126 52 9 4.0 6.0 0.00 0.16 0.00 65 1011.5
20260508060022 52 355 3.0 5.0 0.00 0.17 0.00 64 1011.7
20260508055917 52 24 3.0 7.0 0.00 0.17 0.00 64 1011.7
20260508055829 52 315 5.0 9.0 0.00 0.17 0.00 64 1011.7
20260508055724 52 34 4.0 7.0 0.00 0.17 0.00 63 1011.6
20260508055620 52 327 3.0 5.0 0.00 0.17 0.00 62 1011.6
20260508055516 52 13 3.0 6.0 0.00 0.18 0.00 62 1011.5
20260508055428 52 339 4.0 8.0 0.00 0.18 0.00 62 1011.4
20260508055323 52 353 3.0 5.0 0.00 0.18 0.00 62 1011.6
20260508055219 52 351 3.0 7.0 0.00 0.18 0.00 62 1011.5
20260508055130 52 41 3.0 7.0 0.00 0.18 0.00 62 1011.5
20260508055026 52 343 5.0 7.0 0.00 0.18 0.00 63 1011.4
20260508054942 52 311 3.0 6.0 0.00 0.18 0.00 65 1011.4
20260508054857 52 339 2.0 4.0 0.00 0.19 0.00 65 1011.3
20260508054729 51 310 3.0 6.0 0.00 0.19 0.00 67 1011.2
20260508054624 51 38 2.0 4.0 0.00 0.19 0.00 68 1011.3
20260508054540 51 326 1.0 3.0 0.00 0.19 0.00 70 1011.2
20260508054416 51 15 1.0 4.0 0.00 0.19 0.00 72 1011.2
20260508054328 51 350 2.0 5.0 0.00 0.19 0.00 74 1011.2
20260508054223 51 306 1.0 4.0 0.00 0.19 0.00 77 1011.2
20260508054139 51 344 3.0 3.0 0.00 0.19 0.00 78 1011.1
20260508054031 51 327 1.0 4.0 0.00 0.19 0.00 79 1011.3
20260508053926 50 248 1.0 5.0 0.00 0.19 0.00 79 1011.2
20260508053822 50 330 2.0 5.0 0.00 0.19 0.00 80 1011.1
20260508053737 50 325 4.0 5.0 0.00 0.19 0.00 81 1011.1
20260508053629 50 156 1.0 2.0 0.00 0.19 0.00 81 1011.0
20260508053525 50 149 2.0 2.0 0.00 0.19 0.00 81 1011.0
20260508053420 50 297 1.0 4.0 0.00 0.19 0.00 81 1011.0
20260508053316 50 164 1.0 2.0 0.00 0.19 0.00 81 1010.9
20260508053228 49 232 1.0 3.0 0.00 0.19 0.00 81 1010.7
20260508053123 49 177 1.0 2.0 0.00 0.19 0.00 81 1010.4
20260508053019 49 117 1.0 2.0 0.00 0.20 0.00 81 1010.4
20260508052951 49 124 1.0 2.0 0.00 0.20 0.00 81 1010.3
20260508052926 49 155 1.0 2.0 0.00 0.20 0.00 81 1010.3
20260508052722 49 154 1.0 2.0 0.00 0.21 0.00 80 1010.2
20260508052617 49 175 2.0 2.0 0.00 0.21 0.00 80 1010.2
20260508052549 49 148 1.0 2.0 0.00 0.21 0.00 80 1010.1
20260508052425 49 167 1.0 2.0 0.00 0.21 0.00 80 1010.1
20260508052320 49 193 1.0 2.0 0.00 0.21 0.00 80 1010.0
20260508052216 49 188 1.0 2.0 0.00 0.21 0.00 80 1010.0
20260508052127 49 191 2.0 2.0 0.00 0.21 0.00 80 1010.2
20260508052023 49 189 2.0 2.0 0.00 0.21 0.00 80 1010.1
20260508051919 49 179 1.0 2.0 0.00 0.21 0.00 80 1010.0
20260508051830 49 163 1.0 2.0 0.00 0.21 0.00 79 1009.9
20260508051726 49 0.0 1.0 0.00 0.21 0.00 79 1009.9
20260508051642 49 148 1.0 1.0 0.00 0.21 0.00 79 1010.0
20260508051517 49 139 0.0 2.0 0.00 0.21 0.00 79 1010.0
20260508051429 49 139 1.0 2.0 0.00 0.21 0.00 79 1009.9
20260508051344 49 139 1.0 1.0 0.00 0.21 0.00 79 1009.7
20260508051220 49 0.0 1.0 0.00 0.21 0.00 79 1009.9
20260508051116 49 0.0 0.0 0.00 0.21 0.00 79 1009.9
20260508051027 49 107 0.0 1.0 0.00 0.21 0.00 78 1009.9
20260508050923 49 93 1.0 2.0 0.00 0.21 0.00 78 1009.9
20260508050819 49 87 1.0 2.0 0.00 0.21 0.00 78 1010.0
20260508050730 49 108 1.0 2.0 0.00 0.21 0.00 77 1010.2
20260508050646 49 114 1.0 2.0 0.00 0.21 0.00 78 1010.0
20260508050522 49 119 2.0 2.0 0.00 0.21 0.00 78 1010.2
20260508050417 49 119 2.0 2.0 0.00 0.21 0.00 77 1010.1
20260508050329 49 125 1.0 2.0 0.00 0.21 0.00 77 1010.2
20260508050225 49 157 2.0 2.0 0.00 0.21 0.00 77 1010.3
20260508050120 49 172 2.0 2.0 0.00 0.21 0.00 77 1010.1
20260508050016 49 163 1.0 3.0 0.00 0.21 0.00 77 1010.3
20260508045927 49 173 2.0 2.0 0.00 0.21 0.00 77 1010.4
20260508045843 49 170 2.0 2.0 0.00 0.21 0.00 77 1010.2
20260508045718 49 153 2.0 3.0 0.00 0.21 0.00 77 1010.3
20260508045630 49 158 2.0 2.0 0.00 0.21 0.00 77 1010.3
20260508045526 49 172 2.0 3.0 0.00 0.21 0.00 77 1010.2
20260508045421 49 170 2.0 2.0 0.00 0.21 0.00 78 1010.4
20260508045317 49 180 1.0 2.0 0.00 0.21 0.00 78 1010.3
20260508045248 49 178 2.0 3.0 0.00 0.21 0.00 78 1010.2
20260508045124 48 186 3.0 3.0 0.00 0.21 0.00 78 1010.4
20260508045019 48 182 3.0 3.0 0.00 0.21 0.00 79 1010.2
20260508044915 48 184 2.0 3.0 0.00 0.21 0.00 79 1010.4
20260508044827 48 166 1.0 2.0 0.00 0.21 0.00 79 1010.3
20260508044722 48 158 0.0 1.0 0.00 0.21 0.00 79 1010.2
20260508044618 48 148 1.0 1.0 0.00 0.21 0.00 80 1010.4
20260508044530 48 154 1.0 2.0 0.00 0.21 0.00 80 1010.3
20260508044425 48 172 1.0 2.0 0.00 0.21 0.00 80 1010.2
20260508044321 48 0.0 2.0 0.00 0.21 0.00 80 1010.3
20260508044216 47 123 1.0 2.0 0.00 0.21 0.00 80 1010.2
20260508044128 47 149 1.0 2.0 0.00 0.21 0.00 79 1010.3
20260508044024 47 132 1.0 2.0 0.00 0.21 0.00 79 1010.4
20260508043919 47 134 1.0 2.0 0.00 0.21 0.00 79 1010.3
20260508043851 47 151 0.0 2.0 0.00 0.21 0.00 79 1010.3
20260508043727 47 148 1.0 1.0 0.00 0.21 0.00 79 1010.0
20260508043622 47 125 0.0 2.0 0.00 0.21 0.00 79 1010.2
20260508043518 47 136 0.0 2.0 0.00 0.21 0.00 79 1010.1
20260508043429 47 132 0.0 2.0 0.00 0.21 0.00 79 1010.1
20260508043325 47 0.0 1.0 0.00 0.21 0.00 79 1010.0
20260508043220 47 134 1.0 2.0 0.00 0.21 0.00 79 1010.1
20260508043136 47 141 1.0 2.0 0.00 0.21 0.00 78 1010.0
20260508043028 47 139 1.0 2.0 0.00 0.21 0.00 78 1010.2
20260508043004 48 143 1.0 2.0 0.00 0.21 0.00 78 1010.1
20260508042819 48 135 0.0 1.0 0.00 0.21 0.00 78 1010.1
20260508042731 48 132 1.0 1.0 0.00 0.21 0.00 78 1010.0
20260508042626 48 0.0 1.0 0.00 0.21 0.00 78 1009.8
20260508042522 48 0.0 1.0 0.00 0.21 0.00 78 1009.9
20260508042417 48 0.0 1.0 0.00 0.21 0.00 78 1009.8
20260508042329 48 60 0.0 1.0 0.00 0.21 0.00 78 1009.9
20260508042225 48 114 1.0 2.0 0.00 0.21 0.00 78 1009.7
20260508042121 48 0.0 2.0 0.00 0.21 0.00 77 1010.0
20260508042016 48 112 1.0 2.0 0.00 0.21 0.00 77 1009.9
20260508041928 48 109 1.0 2.0 0.00 0.21 0.00 77 1010.0
20260508041823 48 129 1.0 2.0 0.00 0.21 0.00 77 1009.9
20260508041719 48 148 1.0 2.0 0.00 0.21 0.00 77 1009.8
20260508041631 48 164 2.0 2.0 0.00 0.21 0.00 77 1009.8
20260508041606 48 161 1.0 2.0 0.00 0.21 0.00 77 1009.9
20260508041422 48 164 2.0 2.0 0.00 0.21 0.00 77 1009.9
20260508041318 48 169 1.0 2.0 0.00 0.21 0.00 77 1009.9
20260508041229 48 172 1.0 1.0 0.00 0.21 0.00 77 1009.9
20260508041125 48 179 1.0 2.0 0.00 0.21 0.00 76 1010.0
20260508041040 48 164 1.0 2.0 0.00 0.21 0.00 76 1010.0
20260508040916 48 159 1.0 2.0 0.00 0.21 0.00 76 1009.9
20260508040827 48 163 1.0 2.0 0.00 0.21 0.00 76 1009.9
20260508040723 48 156 1.0 2.0 0.00 0.21 0.00 76 1010.1
20260508040639 48 157 1.0 2.0 0.00 0.21 0.00 76 1009.9
20260508040530 48 158 1.0 1.0 0.00 0.21 0.00 76 1010.0
20260508040506 48 161 0.0 1.0 0.00 0.21 0.00 76 1010.0
20260508040401 48 149 0.0 1.0 0.00 0.21 0.00 75 1010.1
20260508040217 48 159 1.0 1.0 0.00 0.21 0.00 75 1009.9
20260508040148 48 167 1.0 1.0 0.00 0.21 0.00 75 1010.1
20260508040024 48 166 1.0 1.0 0.00 0.21 0.00 75 1010.0
20260508035940 48 0.0 1.0 0.00 0.21 0.21 75 1009.9
20260508035816 48 164 1.0 2.0 0.00 0.21 0.21 75 1009.9
20260508035727 48 163 1.0 2.0 0.00 0.21 0.21 76 1009.9
20260508035623 48 161 2.0 2.0 0.00 0.21 0.21 76 1009.9
20260508035518 48 148 1.0 2.0 0.00 0.21 0.21 76 1009.9
20260508035430 48 135 1.0 1.0 0.00 0.21 0.21 75 1009.8
20260508035325 48 117 0.0 2.0 0.00 0.21 0.21 75 1010.0
20260508035221 48 102 0.0 2.0 0.00 0.21 0.21 75 1009.9
20260508035117 48 143 2.0 2.0 0.00 0.21 0.21 75 1009.9
20260508035029 48 160 1.0 2.0 0.00 0.21 0.21 74 1009.7
20260508034924 49 148 1.0 2.0 0.00 0.21 0.21 74 1010.0
20260508034820 49 144 1.0 2.0 0.00 0.21 0.21 74 1009.9
20260508034715 49 133 1.0 1.0 0.00 0.21 0.21 74 1009.9
20260508034627 49 123 1.0 2.0 0.00 0.21 0.21 74 1009.8
20260508034523 49 116 0.0 2.0 0.00 0.21 0.21 74 1009.9
20260508034418 49 114 1.0 2.0 0.00 0.21 0.21 74 1009.9
20260508034350 49 120 1.0 2.0 0.00 0.21 0.21 74 1009.8
20260508034225 49 138 1.0 2.0 0.00 0.21 0.21 74 1010.0
20260508034121 49 148 2.0 2.0 0.00 0.21 0.21 74 1009.9
20260508034017 49 130 2.0 2.0 0.00 0.21 0.21 73 1009.9
20260508033928 49 151 2.0 2.0 0.00 0.21 0.21 72 1009.9
20260508033844 49 154 1.0 2.0 0.00 0.21 0.21 72 1010.0
20260508033720 49 166 1.0 2.0 0.00 0.21 0.21 72 1010.0
20260508033635 49 162 1.0 2.0 0.00 0.21 0.21 72 1009.9
20260508033527 49 0.0 1.0 0.00 0.21 0.21 72 1009.8
20260508033423 49 0.0 1.0 0.00 0.21 0.21 72 1010.1
20260508033318 49 0.0 0.0 0.00 0.21 0.21 72 1010.1
20260508033230 49 0.0 1.0 0.00 0.21 0.21 72 1010.0
20260508033126 49 0.0 0.0 0.00 0.21 0.21 73 1010.0
20260508033021 49 0.0 0.0 0.00 0.21 0.21 72 1010.0
20260508032917 49 0.0 0.0 0.00 0.21 0.21 72 1010.0
20260508032848 49 142 0.0 1.0 0.00 0.21 0.21 72 1010.0
20260508032744 49 0.0 1.0 0.00 0.21 0.21 72 1009.9
20260508032620 49 176 1.0 2.0 0.00 0.21 0.21 72 1009.9
20260508032515 49 161 0.0 1.0 0.00 0.21 0.21 72 1009.8
20260508032427 49 0.0 1.0 0.00 0.21 0.21 72 1010.1
20260508032343 49 124 1.0 2.0 0.00 0.21 0.21 72 1010.0
20260508032218 49 118 2.0 2.0 0.00 0.21 0.21 72 1010.2
20260508032130 49 103 1.0 2.0 0.00 0.21 0.21 71 1010.1
20260508032026 49 84 0.0 1.0 0.00 0.21 0.21 71 1010.0
20260508031921 49 0.0 0.0 0.00 0.21 0.21 71 1010.0
20260508031817 49 0.0 1.0 0.00 0.21 0.21 71 1009.9
20260508031728 49 0.0 2.0 0.00 0.21 0.21 71 1010.0
20260508031624 49 166 1.0 1.0 0.00 0.21 0.21 71 1009.9
20260508031520 49 0.0 1.0 0.00 0.21 0.21 71 1010.0
20260508031415 49 0.0 1.0 0.00 0.21 0.21 71 1010.0
20260508031347 49 151 0.0 2.0 0.00 0.21 0.21 71 1010.3
20260508031223 49 144 1.0 2.0 0.00 0.21 0.21 70 1010.1
20260508031118 49 142 1.0 2.0 0.00 0.21 0.21 70 1010.2
20260508031030 49 0.0 1.0 0.00 0.21 0.21 70 1010.1
20260508030925 49 149 1.0 2.0 0.00 0.21 0.21 70 1010.0
20260508030821 49 0.0 2.0 0.00 0.21 0.21 70 1010.0
20260508030717 49 0.0 2.0 0.00 0.21 0.21 70 1010.2
20260508030629 49 179 2.0 3.0 0.00 0.21 0.21 69 1010.2
20260508030524 49 192 2.0 2.0 0.00 0.21 0.21 69 1010.1
20260508030420 49 190 2.0 3.0 0.00 0.21 0.21 70 1010.2
20260508030315 49 156 2.0 2.0 0.00 0.21 0.21 69 1010.2
20260508030247 49 54 1.0 2.0 0.00 0.21 0.21 69 1010.2
20260508030123 49 57 0.0 1.0 0.00 0.21 0.21 69 1010.1
20260508030018 49 212 1.0 2.0 0.00 0.21 0.21 70 1010.2
20260508025930 49 163 1.0 2.0 0.00 0.21 0.21 69 1010.3
20260508025825 49 140 0.0 2.0 0.00 0.21 0.21 69 1010.2
20260508025721 49 0.0 2.0 0.00 0.21 0.21 69 1010.0
20260508025637 49 0.0 1.0 0.00 0.21 0.21 69 1010.2
20260508025529 49 130 0.0 1.0 0.00 0.21 0.21 69 1010.1
20260508025424 49 73 1.0 2.0 0.00 0.21 0.21 69 1010.2
20260508025320 50 125 1.0 2.0 0.00 0.21 0.21 69 1010.0
20260508025215 50 159 0.0 1.0 0.00 0.21 0.21 69 1010.0
20260508025127 50 0.0 1.0 0.00 0.21 0.21 69 1010.2
20260508025023 50 0.0 1.0 0.00 0.21 0.21 69 1010.0
20260508024918 50 86 1.0 2.0 0.00 0.21 0.21 68 1010.0
20260508024910 50 82 2.0 2.0 0.00 0.21 0.21 68 1010.1
20260508024726 50 123 1.0 2.0 0.00 0.21 0.21 67 1010.1
20260508024621 50 160 2.0 2.0 0.00 0.21 0.21 67 1010.1
20260508024517 50 161 1.0 2.0 0.00 0.21 0.21 67 1010.0
20260508024429 50 141 1.0 2.0 0.00 0.21 0.21 67 1010.2
20260508024324 50 0.0 2.0 0.00 0.21 0.21 66 1010.1
20260508024220 50 129 1.0 2.0 0.00 0.21 0.21 66 1010.1
20260508024116 50 142 2.0 2.0 0.00 0.21 0.21 66 1010.1
20260508024027 50 156 2.0 2.0 0.00 0.21 0.21 66 1010.2
20260508023923 50 156 2.0 2.0 0.00 0.21 0.21 66 1010.2
20260508023819 50 167 2.0 3.0 0.00 0.21 0.21 66 1010.0
20260508023750 50 166 2.0 3.0 0.00 0.21 0.21 66 1010.2
20260508023626 50 182 2.0 4.0 0.00 0.21 0.21 66 1010.2
20260508023542 50 163 2.0 3.0 0.00 0.21 0.21 67 1010.2
20260508023417 50 145 2.0 3.0 0.00 0.21 0.21 67 1010.3
20260508023329 50 136 2.0 2.0 0.00 0.21 0.21 66 1010.1
20260508023224 50 135 2.0 2.0 0.00 0.21 0.21 65 1010.1
20260508023120 50 163 0.0 2.0 0.00 0.21 0.21 64 1010.1
20260508023016 50 0.0 2.0 0.00 0.21 0.21 64 1010.1
20260508022927 51 0.0 1.0 0.00 0.21 0.21 64 1010.1
20260508022823 51 142 0.0 1.0 0.00 0.21 0.21 64 1010.2
20260508022719 51 0.0 1.0 0.00 0.21 0.21 64 1009.9
20260508022630 51 0.0 1.0 0.00 0.21 0.21 64 1010.1
20260508022526 51 0.0 0.0 0.00 0.21 0.21 64 1010.0
20260508022422 51 0.0 1.0 0.00 0.21 0.21 64 1010.0
20260508022317 51 113 0.0 2.0 0.00 0.21 0.21 64 1010.0
20260508022249 51 120 0.0 2.0 0.00 0.21 0.21 64 1010.0
20260508022125 51 55 1.0 2.0 0.00 0.21 0.21 64 1010.1
20260508022020 51 40 1.0 2.0 0.00 0.21 0.21 64 1009.9
20260508021916 51 82 0.0 1.0 0.00 0.21 0.21 64 1009.8
20260508021827 51 0.0 1.0 0.00 0.21 0.21 63 1009.8
20260508021723 51 0.0 0.0 0.00 0.21 0.21 63 1009.9
20260508021619 51 0.0 1.0 0.00 0.21 0.21 63 1010.0
20260508021530 51 0.0 1.0 0.00 0.21 0.21 63 1010.0
20260508021426 51 0.0 2.0 0.00 0.21 0.21 62 1009.8
20260508021322 51 117 1.0 2.0 0.00 0.21 0.21 62 1009.7
20260508021218 51 114 1.0 1.0 0.00 0.21 0.21 62 1010.0
20260508021129 51 54 1.0 1.0 0.00 0.21 0.21 63 1009.9
20260508021045 51 39 0.0 2.0 0.00 0.21 0.21 62 1010.0
20260508020920 51 82 1.0 1.0 0.00 0.21 0.21 62 1010.1
20260508020816 51 109 0.0 1.0 0.00 0.21 0.21 62 1010.0
20260508020729 51 126 0.0 1.0 0.00 0.21 0.21 62 1009.9
20260508020644 52 0.0 0.0 0.00 0.21 0.21 62 1009.8
20260508020519 52 0.0 0.0 0.00 0.21 0.21 61 1009.7
20260508020431 52 0.0 0.0 0.00 0.21 0.21 61 1009.9
20260508020326 52 123 0.0 2.0 0.00 0.21 0.21 61 1009.8
20260508020222 52 101 1.0 2.0 0.00 0.21 0.21 61 1009.8
20260508020118 52 0.0 1.0 0.00 0.21 0.21 61 1009.8
20260508020029 52 0.0 1.0 0.00 0.21 0.21 60 1010.0
20260508015945 52 81 1.0 2.0 0.00 0.21 0.21 60 1009.9
20260508015821 52 53 0.0 2.0 0.00 0.21 0.21 60 1010.0
20260508015716 52 92 1.0 2.0 0.00 0.21 0.21 61 1009.9
20260508015628 52 105 0.0 1.0 0.00 0.21 0.21 61 1009.8
20260508015524 52 0.0 0.0 0.00 0.21 0.21 60 1009.8
20260508015419 52 0.0 0.0 0.00 0.21 0.21 60 1009.8
20260508015331 52 143 0.0 1.0 0.00 0.21 0.21 60 1009.9
20260508015226 52 132 1.0 1.0 0.00 0.21 0.21 60 1009.6
20260508015122 52 181 0.0 2.0 0.00 0.21 0.21 60 1009.8
20260508015018 52 0.0 1.0 0.00 0.21 0.21 60 1009.7
20260508014929 52 0.0 1.0 0.00 0.21 0.21 59 1009.7
20260508014825 52 0.0 1.0 0.00 0.21 0.21 59 1009.7
20260508014721 52 127 0.0 1.0 0.00 0.21 0.21 59 1009.6
20260508014637 52 0.0 1.0 0.00 0.21 0.21 59 1009.8
20260508014528 52 0.0 1.0 0.00 0.21 0.21 59 1009.7
20260508014444 52 155 0.0 1.0 0.00 0.21 0.21 59 1009.8
20260508014319 53 165 1.0 1.0 0.00 0.21 0.21 59 1009.8
20260508014215 53 134 1.0 1.0 0.00 0.21 0.21 59 1009.6
20260508014127 53 174 1.0 1.0 0.00 0.21 0.21 59 1009.5
20260508014023 53 0.0 0.0 0.00 0.21 0.21 59 1009.7
20260508013938 53 0.0 0.0 0.00 0.21 0.21 59 1009.5
20260508013830 53 0.0 0.0 0.00 0.21 0.21 59 1009.7
20260508013725 53 0.0 1.0 0.00 0.21 0.21 58 1009.8
20260508013621 53 0.0 1.0 0.00 0.21 0.21 58 1009.8
20260508013517 53 0.0 1.0 0.00 0.21 0.21 58 1009.7
20260508013428 53 79 1.0 2.0 0.00 0.21 0.21 58 1009.7
20260508013324 53 109 0.0 1.0 0.00 0.22 0.21 59 1009.7
20260508013220 53 78 1.0 2.0 0.00 0.24 0.21 57 1009.7
20260508013115 53 79 1.0 2.0 0.00 0.24 0.21 57 1009.6
20260508013027 53 98 0.0 2.0 0.00 0.24 0.21 57 1009.6
20260508012942 53 98 1.0 2.0 0.00 0.24 0.21 57 1009.5
20260508012818 53 92 1.0 1.0 0.00 0.24 0.21 57 1009.6
20260508012730 53 94 1.0 2.0 0.00 0.24 0.21 57 1009.6
20260508012625 53 96 1.0 2.0 0.00 0.24 0.21 57 1009.6
20260508012541 53 136 0.0 1.0 0.00 0.24 0.21 58 1009.4
20260508012417 53 0.0 1.0 0.00 0.24 0.21 58 1009.5
20260508012328 53 0.0 2.0 0.00 0.24 0.21 57 1009.8
20260508012224 53 113 1.0 1.0 0.00 0.24 0.21 56 1009.5
20260508012139 53 0.0 2.0 0.00 0.24 0.21 56 1009.8
20260508012015 53 0.0 2.0 0.00 0.24 0.21 57 1009.8
20260508011927 53 142 1.0 2.0 0.00 0.24 0.21 57 1009.8
20260508011843 54 107 0.0 2.0 0.00 0.24 0.21 57 1009.7
20260508011718 54 122 1.0 2.0 0.00 0.24 0.21 56 1009.7
20260508011630 54 127 1.0 2.0 0.00 0.24 0.21 56 1009.7
20260508011545 54 0.0 2.0 0.00 0.24 0.21 56 1009.7
20260508011421 54 109 1.0 2.0 0.00 0.24 0.21 56 1009.6
20260508011317 54 106 1.0 2.0 0.00 0.24 0.21 55 1009.7
20260508011228 54 104 1.0 2.0 0.00 0.24 0.21 55 1009.6
20260508011124 54 93 1.0 2.0 0.00 0.24 0.21 55 1009.5
20260508011020 54 67 1.0 2.0 0.00 0.24 0.21 55 1009.8
20260508010935 54 0.0 1.0 0.00 0.24 0.21 55 1009.8
20260508010827 54 96 0.0 2.0 0.00 0.24 0.21 55 1009.6
20260508010723 54 136 0.0 2.0 0.00 0.24 0.21 55 1009.5
20260508010638 54 125 0.0 2.0 0.00 0.24 0.21 55 1009.6
20260508010530 54 136 0.0 2.0 0.00 0.24 0.21 54 1009.6
20260508010446 54 125 1.0 1.0 0.00 0.24 0.21 54 1009.6
20260508010321 55 134 1.0 2.0 0.00 0.24 0.21 54 1009.4
20260508010217 55 131 1.0 2.0 0.00 0.24 0.21 54 1009.6
20260508010128 55 136 1.0 2.0 0.00 0.24 0.21 54 1009.5
20260508010024 55 109 0.0 1.0 0.00 0.24 0.21 53 1009.7
20260508005920 55 0.0 2.0 0.00 0.24 0.21 53 1009.6
20260508005815 55 142 1.0 2.0 0.00 0.24 0.21 53 1009.5
20260508005727 55 137 0.0 1.0 0.00 0.24 0.21 52 1009.5
20260508005622 55 168 0.0 1.0 0.00 0.24 0.21 52 1009.5
20260508005518 55 0.0 2.0 0.00 0.24 0.21 52 1009.6
20260508005430 55 150 0.0 1.0 0.00 0.24 0.21 52 1009.3
20260508005345 55 130 1.0 1.0 0.00 0.24 0.21 52 1009.3
20260508005221 56 125 1.0 1.0 0.00 0.24 0.21 51 1009.5
20260508005137 56 0.0 1.0 0.00 0.24 0.21 51 1009.5
20260508005048 56 109 1.0 2.0 0.00 0.24 0.21 50 1009.4
20260508004944 56 131 1.0 2.0 0.00 0.24 0.21 50 1009.4
20260508004820 56 0.0 2.0 0.00 0.24 0.21 50 1009.3
20260508004715 56 109 1.0 1.0 0.00 0.24 0.21 50 1009.2
20260508004627 56 89 0.0 1.0 0.00 0.24 0.21 51 1009.2
20260508004522 56 0.0 1.0 0.00 0.24 0.21 50 1009.4
20260508004418 56 99 0.0 2.0 0.00 0.24 0.21 50 1009.2
20260508004330 56 103 2.0 2.0 0.00 0.24 0.21 50 1009.3
20260508004225 56 110 1.0 2.0 0.00 0.24 0.21 50 1009.3
20260508004121 56 131 0.0 1.0 0.00 0.24 0.21 48 1009.4
20260508004017 56 0.0 1.0 0.00 0.24 0.21 47 1009.4
20260508003928 56 116 0.0 2.0 0.00 0.24 0.21 48 1009.3
20260508003824 56 102 1.0 2.0 0.00 0.24 0.21 48 1009.3
20260508003739 56 153 1.0 2.0 0.00 0.24 0.21 48 1009.4
20260508003615 56 0.0 2.0 0.00 0.24 0.21 49 1009.3
20260508003527 57 132 1.0 2.0 0.00 0.24 0.21 48 1009.4
20260508003422 57 123 0.0 1.0 0.00 0.24 0.21 48 1009.3
20260508003318 57 125 0.0 2.0 0.00 0.24 0.21 47 1009.3
20260508003230 57 142 1.0 2.0 0.00 0.24 0.21 47 1009.3
20260508003125 57 60 0.0 2.0 0.00 0.24 0.21 46 1009.2
20260508003021 57 0.0 1.0 0.00 0.24 0.21 47 1009.1
20260508002917 57 133 0.0 2.0 0.00 0.24 0.21 47 1009.3
20260508002849 57 0.0 2.0 0.00 0.24 0.21 46 1009.1
20260508002744 57 116 1.0 2.0 0.00 0.24 0.21 46 1009.0
20260508002640 57 126 0.0 1.0 0.00 0.24 0.21 46 1009.1
20260508002535 57 160 0.0 2.0 0.00 0.24 0.21 46 1009.1
20260508002427 57 0.0 2.0 0.00 0.24 0.21 45 1009.1
20260508002343 57 171 1.0 2.0 0.00 0.24 0.21 46 1008.9
20260508002238 57 0.0 1.0 0.00 0.24 0.21 45 1009.0
20260508002130 57 0.0 2.0 0.00 0.24 0.21 46 1009.0
20260508002026 57 145 1.0 2.0 0.00 0.24 0.21 45 1009.0
20260508001921 58 0.0 0.0 0.00 0.24 0.21 45 1009.0
20260508001837 58 0.0 2.0 0.00 0.24 0.21 44 1009.1
20260508001728 58 157 1.0 2.0 0.00 0.24 0.21 44 1008.9
20260508001644 58 139 0.0 2.0 0.00 0.24 0.21 44 1008.9
20260508001520 58 0.0 2.0 0.00 0.24 0.21 44 1009.0
20260508001415 58 130 1.0 2.0 0.00 0.24 0.21 44 1008.9
20260508001327 58 139 0.0 2.0 0.00 0.24 0.21 44 1008.9
20260508001223 58 128 0.0 2.0 0.00 0.24 0.21 44 1008.8
20260508001118 58 128 1.0 2.0 0.00 0.24 0.21 45 1008.8
20260508001030 59 153 0.0 2.0 0.00 0.24 0.21 44 1008.9
20260508000925 59 120 1.0 2.0 0.00 0.24 0.21 44 1009.0
20260508000821 59 137 0.0 1.0 0.00 0.24 0.21 43 1008.8
20260508000717 59 137 1.0 2.0 0.00 0.24 0.21 42 1008.8
20260508000629 59 0.0 1.0 0.00 0.24 0.21 41 1008.7
20260508000524 59 352 0.0 1.0 0.00 0.24 0.21 41 1009.0
20260508000420 59 0.0 1.0 0.00 0.24 0.21 40 1009.1
20260508000315 59 151 0.0 1.0 0.00 0.24 0.21 40 1009.0
20260508000227 59 0.0 1.0 0.00 0.24 0.21 41 1008.8
20260508000143 60 80 0.0 1.0 0.00 0.24 0.21 40 1008.9
20260508000018 60 122 1.0 2.0 0.00 0.24 0.21 39 1008.8
20260507235930 60 80 0.0 2.0 0.00 0.24 0.21 40 1008.8
20260507235846 60 87 1.0 2.0 0.00 0.24 0.21 38 1008.8
20260507235721 60 0.0 1.0 0.00 0.24 0.21 39 1008.9
20260507235637 60 128 1.0 2.0 0.00 0.24 0.21 39 1008.8
20260507235528 60 162 1.0 2.0 0.00 0.24 0.21 39 1008.8
20260507235444 60 0.0 1.0 0.00 0.24 0.21 38 1008.7
20260507235320 60 0.0 1.0 0.00 0.24 0.21 39 1008.8
20260507235215 60 121 1.0 1.0 0.00 0.24 0.21 38 1008.8
20260507235127 60 89 0.0 1.0 0.00 0.24 0.21 38 1008.7
20260507235023 60 0.0 2.0 0.00 0.24 0.21 38 1008.6
20260507234918 60 126 1.0 2.0 0.00 0.24 0.21 38 1008.6
20260507234850 60 122 0.0 1.0 0.00 0.24 0.21 38 1008.8
20260507234725 60 143 1.0 2.0 0.00 0.24 0.21 38 1008.7
20260507234621 60 0.0 1.0 0.00 0.24 0.21 38 1008.7
20260507234517 60 143 0.0 1.0 0.00 0.24 0.21 38 1008.6
20260507234428 60 4 0.0 2.0 0.00 0.24 0.21 38 1008.7
20260507234324 60 65 1.0 2.0 0.00 0.24 0.21 37 1008.8
20260507234219 60 286 2.0 3.0 0.00 0.24 0.21 37 1008.7
20260507234115 60 44 0.0 1.0 0.00 0.24 0.21 37 1008.6
20260507234026 60 0.0 2.0 0.00 0.24 0.21 38 1008.8
20260507233922 60 125 1.0 2.0 0.00 0.24 0.21 38 1008.8
20260507233818 60 182 1.0 2.0 0.00 0.24 0.21 38 1008.9
20260507233729 60 139 1.0 1.0 0.00 0.24 0.21 38 1008.7
20260507233625 60 129 0.0 2.0 0.00 0.24 0.21 37 1008.7
20260507233521 61 150 0.0 2.0 0.00 0.24 0.21 36 1008.7
20260507233437 61 167 1.0 2.0 0.00 0.24 0.21 36 1008.8
20260507233328 61 131 1.0 1.0 0.00 0.24 0.21 36 1008.6
20260507233224 61 158 0.0 2.0 0.00 0.24 0.21 36 1008.7
20260507233120 61 0.0 2.0 0.00 0.24 0.21 35 1008.7
20260507233015 61 81 1.0 2.0 0.00 0.24 0.21 36 1008.7
20260507232927 61 118 0.0 2.0 0.00 0.24 0.21 37 1008.8
20260507232822 61 173 0.0 2.0 0.00 0.24 0.21 37 1008.6
20260507232718 61 0.0 0.0 0.00 0.24 0.21 37 1008.7
20260507232629 61 319 0.0 1.0 0.00 0.24 0.21 37 1008.6
20260507232525 61 41 1.0 2.0 0.00 0.24 0.21 36 1008.5
20260507232441 61 25 1.0 2.0 0.00 0.24 0.21 36 1008.5
20260507232316 61 14 1.0 2.0 0.00 0.24 0.21 36 1008.6
20260507232228 61 31 1.0 4.0 0.00 0.24 0.21 35 1008.5
20260507232124 61 91 1.0 2.0 0.00 0.24 0.21 36 1008.3
20260507232019 61 25 1.0 1.0 0.00 0.24 0.21 36 1008.4
20260507231915 61 1 1.0 2.0 0.00 0.24 0.21 36 1008.5
20260507231827 62 351 2.0 2.0 0.00 0.24 0.21 36 1008.4
20260507231723 62 173 1.0 2.0 0.00 0.24 0.21 36 1008.5
20260507231618 62 157 0.0 1.0 0.00 0.24 0.21 36 1008.5
20260507231530 62 74 2.0 2.0 0.00 0.24 0.21 35 1008.5
20260507231425 62 283 1.0 2.0 0.00 0.24 0.21 35 1008.6
20260507231321 62 167 0.0 2.0 0.00 0.24 0.21 34 1008.4
20260507231216 62 55 2.0 3.0 0.00 0.24 0.21 35 1008.3
20260507231128 62 18 1.0 2.0 0.00 0.24 0.21 36 1008.4
20260507231024 62 351 2.0 4.0 0.00 0.24 0.21 35 1008.4
20260507230920 62 37 1.0 2.0 0.00 0.24 0.21 35 1008.4
20260507230815 62 33 1.0 2.0 0.00 0.24 0.21 35 1008.5
20260507230727 62 29 2.0 4.0 0.00 0.24 0.21 34 1008.7
20260507230623 62 19 1.0 2.0 0.00 0.24 0.21 35 1008.6
20260507230518 62 336 2.0 3.0 0.00 0.24 0.21 34 1008.5
20260507230430 62 291 3.0 5.0 0.00 0.24 0.21 35 1008.5
20260507230325 62 302 1.0 2.0 0.00 0.24 0.21 35 1008.5
20260507230221 62 81 1.0 3.0 0.00 0.24 0.21 35 1008.7
20260507230117 62 62 3.0 4.0 0.00 0.24 0.21 35 1008.6
20260507230029 62 352 1.0 3.0 0.00 0.24 0.21 36 1008.7
20260507225924 62 341 2.0 4.0 0.00 0.24 0.21 36 1008.6
20260507225819 62 359 1.0 2.0 0.00 0.24 0.21 37 1008.5
20260507225715 62 328 0.0 2.0 0.00 0.24 0.21 37 1008.4
20260507225627 62 53 0.0 2.0 0.00 0.24 0.21 35 1008.4
20260507225522 62 340 0.0 2.0 0.00 0.24 0.21 35 1008.5
20260507225418 62 128 0.0 1.0 0.00 0.24 0.21 35 1008.5
20260507225329 62 0.0 1.0 0.00 0.24 0.21 35 1008.6
20260507225225 62 19 0.0 4.0 0.00 0.24 0.21 34 1008.3
20260507225141 62 2 1.0 2.0 0.00 0.24 0.21 35 1008.7
20260507225017 62 355 2.0 4.0 0.00 0.24 0.21 34 1008.6
20260507224928 62 35 2.0 3.0 0.00 0.24 0.21 34 1008.4
20260507224824 62 1 1.0 2.0 0.00 0.24 0.21 35 1008.4
20260507224719 62 2 1.0 2.0 0.00 0.24 0.21 34 1008.4
20260507224615 62 43 1.0 2.0 0.00 0.24 0.21 35 1008.2
20260507224527 63 349 1.0 2.0 0.00 0.24 0.21 35 1008.3
20260507224422 63 85 1.0 2.0 0.00 0.24 0.21 36 1008.3
20260507224338 63 46 2.0 3.0 0.00 0.24 0.21 34 1008.2
20260507224229 63 1 1.0 2.0 0.00 0.24 0.21 35 1008.4
20260507224145 63 359 1.0 4.0 0.00 0.24 0.21 33 1008.4
20260507224021 63 308 1.0 3.0 0.00 0.24 0.21 33 1008.4
20260507223916 63 350 2.0 3.0 0.00 0.24 0.21 34 1008.4
20260507223828 63 2 2.0 4.0 0.00 0.24 0.21 33 1008.4
20260507223724 63 347 4.0 6.0 0.00 0.24 0.21 34 1008.4
20260507223619 63 131 1.0 2.0 0.00 0.24 0.21 35 1008.7
20260507223515 63 43 3.0 4.0 0.00 0.24 0.21 33 1008.5
20260507223427 63 156 0.0 2.0 0.00 0.24 0.21 34 1008.5
20260507223322 63 223 1.0 2.0 0.00 0.24 0.21 34 1008.5
20260507223238 63 346 0.0 2.0 0.00 0.24 0.21 33 1008.4
20260507223130 63 359 1.0 3.0 0.00 0.24 0.21 34 1008.4
20260507223025 63 1 3.0 4.0 0.00 0.24 0.21 33 1008.4
20260507222921 63 353 2.0 3.0 0.00 0.24 0.21 33 1008.5
20260507222816 63 49 2.0 5.0 0.00 0.24 0.21 33 1008.4
20260507222728 63 47 3.0 5.0 0.00 0.24 0.21 33 1008.5
20260507222624 64 289 2.0 4.0 0.00 0.24 0.21 33 1008.5
20260507222520 64 351 3.0 5.0 0.00 0.24 0.21 33 1008.4
20260507222435 64 275 1.0 3.0 0.00 0.24 0.21 34 1008.4
20260507222327 64 86 2.0 2.0 0.00 0.24 0.21 33 1008.3
20260507222223 64 18 1.0 2.0 0.00 0.24 0.21 34 1008.4
20260507222118 64 357 1.0 4.0 0.00 0.24 0.21 33 1008.3
20260507222030 64 29 3.0 5.0 0.00 0.24 0.21 33 1008.4
20260507221926 64 18 3.0 4.0 0.00 0.24 0.21 33 1008.3
20260507221821 64 6 3.0 5.0 0.00 0.24 0.21 33 1008.3
20260507221717 64 42 3.0 5.0 0.00 0.24 0.21 33 1008.4
20260507221628 64 42 3.0 6.0 0.00 0.24 0.21 33 1008.3
20260507221524 64 59 3.0 5.0 0.00 0.24 0.21 33 1008.4
20260507221420 64 322 4.0 5.0 0.00 0.24 0.21 33 1008.4
20260507221316 64 246 2.0 4.0 0.00 0.24 0.21 33 1008.3
20260507221227 64 146 1.0 3.0 0.00 0.24 0.21 33 1008.3
20260507221123 64 89 1.0 3.0 0.00 0.24 0.21 33 1008.5
20260507221039 64 55 1.0 2.0 0.00 0.24 0.21 33 1008.4
20260507220951 64 44 2.0 4.0 0.00 0.24 0.21 33 1008.4
20260507220826 64 48 3.0 6.0 0.00 0.24 0.21 32 1008.2
20260507220721 64 88 2.0 4.0 0.00 0.24 0.21 32 1008.3
20260507220617 64 31 1.0 4.0 0.00 0.24 0.21 34 1008.4
20260507220529 64 67 2.0 3.0 0.00 0.24 0.21 33 1008.5
20260507220444 64 11 1.0 3.0 0.00 0.24 0.21 33 1008.3
20260507220320 64 9 2.0 3.0 0.00 0.24 0.21 33 1008.5
20260507220216 64 22 2.0 4.0 0.00 0.24 0.21 34 1008.4
20260507220127 64 321 2.0 3.0 0.00 0.24 0.21 34 1008.6
20260507220023 64 351 1.0 3.0 0.00 0.24 0.21 34 1008.6
20260507215919 64 245 1.0 2.0 0.00 0.24 0.21 33 1008.7
20260507215830 64 8 2.0 3.0 0.00 0.24 0.21 33 1008.5
20260507215726 64 32 2.0 3.0 0.00 0.24 0.21 33 1008.4
20260507215622 64 74 1.0 3.0 0.00 0.24 0.21 33 1008.7
20260507215517 64 359 1.0 2.0 0.00 0.24 0.21 34 1008.5
20260507215429 64 280 1.0 2.0 0.00 0.24 0.21 34 1008.3
20260507215325 64 84 1.0 3.0 0.00 0.24 0.21 34 1008.6
20260507215220 64 156 2.0 3.0 0.00 0.24 0.21 34 1008.6
20260507215116 64 330 3.0 5.0 0.00 0.24 0.21 34 1008.5
20260507215028 64 36 2.0 3.0 0.00 0.24 0.21 34 1008.6
20260507214923 64 33 3.0 6.0 0.00 0.24 0.21 33 1008.2
20260507214819 64 351 2.0 4.0 0.00 0.24 0.21 33 1008.5
20260507214731 64 1 2.0 4.0 0.00 0.24 0.21 33 1008.6
20260507214626 64 13 2.0 9.0 0.00 0.24 0.21 33 1008.4
20260507214522 64 3 4.0 8.0 0.00 0.24 0.21 33 1008.3
20260507214417 64 243 4.0 6.0 0.00 0.24 0.21 34 1008.5
20260507214329 64 304 2.0 5.0 0.00 0.24 0.21 34 1008.3
20260507214225 64 342 2.0 4.0 0.00 0.24 0.21 34 1008.6
20260507214120 64 175 1.0 2.0 0.00 0.24 0.21 34 1008.5
20260507214016 64 338 2.0 4.0 0.00 0.24 0.21 33 1008.5
20260507213928 64 284 2.0 3.0 0.00 0.24 0.21 33 1008.3
20260507213823 64 210 3.0 4.0 0.00 0.24 0.21 33 1008.4
20260507213719 64 51 3.0 5.0 0.00 0.24 0.21 33 1008.3
20260507213630 64 353 2.0 6.0 0.00 0.24 0.21 33 1008.4
20260507213526 64 339 3.0 6.0 0.00 0.24 0.21 33 1008.5
20260507213422 64 340 4.0 6.0 0.00 0.24 0.21 33 1008.6
20260507213317 64 22 3.0 6.0 0.00 0.24 0.21 33 1008.5
20260507213229 64 353 2.0 5.0 0.00 0.24 0.21 34 1008.5
20260507213125 64 359 2.0 5.0 0.00 0.24 0.21 33 1008.5
20260507213020 64 332 2.0 4.0 0.00 0.24 0.21 34 1008.5
20260507212916 64 358 1.0 3.0 0.00 0.24 0.21 34 1008.4
20260507212828 64 14 2.0 3.0 0.00 0.24 0.21 34 1008.2
20260507212723 64 65 2.0 3.0 0.00 0.24 0.21 33 1008.5
20260507212619 64 142 1.0 2.0 0.00 0.24 0.21 33 1008.3
20260507212611 64 355 2.0 4.0 0.00 0.24 0.21 33 1008.4
20260507212427 64 44 5.0 11.0 0.00 0.24 0.21 32 1008.2
20260507212322 64 36 2.0 4.0 0.00 0.24 0.21 33 1008.3
20260507212218 64 60 1.0 3.0 0.00 0.24 0.21 33 1008.2
20260507212129 64 13 3.0 4.0 0.00 0.24 0.21 33 1008.3
20260507212025 64 86 1.0 2.0 0.00 0.24 0.21 34 1008.4
20260507211921 64 0.0 3.0 0.00 0.24 0.21 34 1008.3
20260507211816 64 353 2.0 6.0 0.00 0.24 0.21 33 1008.3
20260507211728 64 341 4.0 7.0 0.00 0.24 0.21 33 1008.4
20260507211624 64 328 4.0 10.0 0.00 0.24 0.21 33 1008.3
20260507211520 64 21 3.0 4.0 0.00 0.24 0.21 33 1008.1
20260507211415 64 345 3.0 4.0 0.00 0.24 0.21 34 1008.2
20260507211327 64 74 2.0 3.0 0.00 0.24 0.21 33 1008.2
20260507211222 64 139 2.0 4.0 0.00 0.24 0.21 34 1008.2
20260507211118 64 169 1.0 2.0 0.00 0.24 0.21 36 1008.2
20260507211050 64 199 0.0 1.0 0.00 0.24 0.21 36 1008.3
20260507210925 64 156 0.0 3.0 0.00 0.24 0.21 35 1008.2
20260507210821 64 222 1.0 3.0 0.00 0.24 0.21 34 1008.1
20260507210716 63 253 1.0 2.0 0.00 0.24 0.21 35 1008.2
20260507210628 63 263 1.0 2.0 0.00 0.24 0.21 35 1008.1
20260507210524 63 331 1.0 3.0 0.00 0.24 0.21 36 1008.1
20260507210419 63 347 1.0 2.0 0.00 0.24 0.21 35 1008.3
20260507210331 63 349 2.0 4.0 0.00 0.24 0.21 36 1008.2
20260507210226 63 32 1.0 2.0 0.00 0.24 0.21 35 1008.1
20260507210122 63 235 1.0 2.0 0.00 0.24 0.21 34 1008.1
20260507210018 63 291 3.0 7.0 0.00 0.24 0.21 35 1008.1
20260507205930 63 333 3.0 5.0 0.00 0.24 0.21 34 1008.2
20260507205825 63 349 1.0 3.0 0.00 0.24 0.21 35 1008.1
20260507205721 63 340 2.0 3.0 0.00 0.24 0.21 34 1008.2
20260507205616 63 306 1.0 2.0 0.00 0.24 0.21 34 1008.1
20260507205528 63 342 1.0 4.0 0.00 0.24 0.21 34 1008.1
20260507205424 63 359 1.0 4.0 0.00 0.24 0.21 35 1008.3
20260507205339 63 32 3.0 6.0 0.00 0.24 0.21 34 1008.1
20260507205231 63 12 2.0 2.0 0.00 0.24 0.21 34 1008.1
20260507205126 64 311 3.0 6.0 0.00 0.24 0.21 34 1008.1
20260507205022 64 331 2.0 4.0 0.00 0.24 0.21 34 1008.0
20260507204918 64 358 1.0 3.0 0.00 0.24 0.21 35 1008.1
20260507204829 64 349 1.0 4.0 0.00 0.24 0.21 35 1008.1
20260507204725 64 317 2.0 3.0 0.00 0.24 0.21 34 1008.0
20260507204621 64 161 0.0 2.0 0.00 0.24 0.21 33 1008.0
20260507204517 64 43 2.0 4.0 0.00 0.24 0.21 34 1008.0
20260507204428 64 22 2.0 3.0 0.00 0.24 0.21 34 1008.0
20260507204344 64 339 2.0 4.0 0.00 0.24 0.21 35 1008.0
20260507204219 65 29 1.0 2.0 0.00 0.24 0.21 34 1008.0
20260507204131 65 93 1.0 2.0 0.00 0.24 0.21 34 1008.0
20260507204026 65 32 1.0 5.0 0.00 0.24 0.21 34 1008.0
20260507203942 65 353 2.0 5.0 0.00 0.24 0.21 33 1008.0
20260507203818 65 346 2.0 4.0 0.00 0.24 0.21 33 1007.9
20260507203729 65 108 2.0 2.0 0.00 0.24 0.21 34 1008.0
20260507203625 65 202 2.0 3.0 0.00 0.24 0.21 34 1008.1
20260507203521 65 195 1.0 3.0 0.00 0.24 0.21 35 1008.0
20260507203416 65 168 2.0 3.0 0.00 0.24 0.21 34 1008.1
20260507203348 65 229 2.0 3.0 0.00 0.24 0.21 34 1008.1
20260507203223 65 250 2.0 3.0 0.00 0.24 0.21 34 1008.0
20260507203119 65 340 2.0 3.0 0.00 0.24 0.21 33 1008.1
20260507203051 65 46 1.0 4.0 0.00 0.24 0.21 33 1008.2
20260507202926 65 47 2.0 3.0 0.00 0.24 0.21 35 1008.2
20260507202842 65 26 2.0 4.0 0.00 0.24 0.21 33 1008.1
20260507202718 65 42 2.0 4.0 0.00 0.24 0.21 33 1008.2
20260507202629 66 310 2.0 4.0 0.00 0.24 0.21 32 1008.2
20260507202525 66 344 3.0 5.0 0.00 0.24 0.21 32 1008.3
20260507202421 66 332 2.0 5.0 0.00 0.24 0.21 33 1008.1
20260507202316 66 307 2.0 4.0 0.00 0.24 0.21 34 1008.2
20260507202228 66 20 2.0 4.0 0.00 0.24 0.21 33 1008.3
20260507202124 65 256 3.0 4.0 0.00 0.24 0.21 33 1008.2
20260507202019 66 16 1.0 3.0 0.00 0.24 0.21 32 1008.1
20260507201915 66 27 3.0 4.0 0.00 0.24 0.21 33 1008.0
20260507201827 66 348 1.0 2.0 0.00 0.24 0.21 34 1008.2
20260507201722 66 356 2.0 4.0 0.00 0.24 0.21 34 1008.3
20260507201618 66 358 2.0 3.0 0.00 0.24 0.21 34 1008.2
20260507201530 65 55 2.0 4.0 0.00 0.24 0.21 35 1008.2
20260507201425 65 328 3.0 5.0 0.00 0.24 0.21 33 1008.3
20260507201321 65 154 1.0 2.0 0.00 0.24 0.21 34 1008.3
20260507201216 65 14 2.0 3.0 0.00 0.24 0.21 34 1008.4
20260507201128 65 36 3.0 4.0 0.00 0.24 0.21 34 1008.3
20260507201024 65 307 0.0 2.0 0.00 0.24 0.21 33 1008.2
20260507200919 65 334 1.0 5.0 0.00 0.24 0.21 34 1008.1
20260507200815 65 357 3.0 9.0 0.00 0.24 0.21 37 1008.3
20260507200747 65 351 3.0 4.0 0.00 0.24 0.21 34 1008.2
20260507200622 65 46 2.0 4.0 0.00 0.24 0.21 35 1008.3
20260507200518 64 334 1.0 3.0 0.00 0.24 0.21 36 1008.3
20260507200430 64 20 2.0 4.0 0.00 0.24 0.21 34 1008.3
20260507200325 64 35 4.0 6.0 0.00 0.24 0.21 35 1008.3
20260507200241 64 345 4.0 6.0 0.00 0.24 0.21 34 1008.2
20260507200117 64 322 3.0 6.0 0.00 0.24 0.21 35 1008.1
20260507200049 64 22 5.0 9.0 0.00 0.24 0.21 35 1008.1
20260507195924 64 318 1.0 4.0 0.00 0.24 0.21 35 1008.1
20260507195820 64 177 2.0 3.0 0.00 0.24 0.21 35 1008.4
20260507195715 64 154 2.0 4.0 0.00 0.24 0.21 36 1008.3
20260507195647 64 339 3.0 3.0 0.00 0.24 0.21 35 1008.3
20260507195523 64 52 3.0 6.0 0.00 0.24 0.21 35 1008.2
20260507195418 64 265 2.0 3.0 0.00 0.24 0.21 36 1008.3
20260507195330 64 349 2.0 4.0 0.00 0.24 0.21 34 1008.4
20260507195225 64 358 1.0 2.0 0.00 0.24 0.21 35 1008.3
20260507195121 64 56 2.0 3.0 0.00 0.24 0.21 35 1008.3
20260507195017 64 335 3.0 4.0 0.00 0.24 0.21 34 1008.4
20260507194928 65 352 2.0 4.0 0.00 0.24 0.21 34 1008.3
20260507194824 65 180 1.0 2.0 0.00 0.24 0.21 35 1008.3
20260507194720 65 191 2.0 3.0 0.00 0.24 0.21 36 1008.1
20260507194615 65 207 1.0 2.0 0.00 0.24 0.21 36 1008.5
20260507194527 64 207 1.0 4.0 0.00 0.24 0.21 34 1008.5
20260507194423 64 165 3.0 4.0 0.00 0.24 0.21 34 1008.4
20260507194318 65 236 3.0 6.0 0.00 0.24 0.21 35 1008.5
20260507194230 66 346 3.0 5.0 0.00 0.24 0.21 34 1008.5
20260507194126 66 325 2.0 4.0 0.00 0.24 0.21 36 1008.2
20260507194021 66 282 3.0 4.0 0.00 0.24 0.21 35 1008.3
20260507193917 66 314 4.0 7.0 0.00 0.24 0.21 35 1008.4
20260507193828 66 21 3.0 4.0 0.00 0.24 0.21 37 1008.5
20260507193804 66 40 2.0 3.0 0.00 0.24 0.21 35 1008.5
20260507193640 66 302 1.0 4.0 0.00 0.24 0.21 35 1008.3
20260507193516 66 314 2.0 4.0 0.00 0.24 0.21 36 1008.5
20260507193427 66 294 2.0 3.0 0.00 0.24 0.21 35 1008.5
20260507193323 65 211 2.0 4.0 0.00 0.24 0.21 35 1008.4
20260507193218 65 231 1.0 4.0 0.00 0.24 0.21 32 1008.3
20260507193130 65 201 2.0 5.0 0.00 0.24 0.21 33 1008.4
20260507193026 65 198 3.0 6.0 0.00 0.24 0.21 35 1008.5
20260507192929 65 35 4.0 6.0 0.00 0.24 0.21 37 1008.5
20260507192624 65 329 4.0 7.0 0.00 0.24 0.21 35 1008.6
20260507192520 65 1 3.0 5.0 0.00 0.24 0.21 34 1008.6
20260507192436 65 228 2.0 6.0 0.00 0.24 0.21 37 1008.6
20260507192347 66 309 3.0 4.0 0.00 0.24 0.21 35 1008.8
20260507192223 66 237 3.0 5.0 0.00 0.24 0.21 36 1008.7
20260507192118 65 195 2.0 4.0 0.00 0.24 0.21 38 1008.6
20260507192030 65 339 4.0 6.0 0.00 0.24 0.21 35 1008.5
20260507191926 66 2 3.0 5.0 0.00 0.24 0.21 36 1008.6
20260507191821 66 289 4.0 7.0 0.00 0.24 0.21 35 1008.8
20260507191717 66 349 4.0 9.0 0.00 0.24 0.21 34 1008.8
20260507191629 66 338 3.0 5.0 0.00 0.24 0.21 35 1008.6
20260507191524 66 52 1.0 2.0 0.00 0.24 0.21 38 1008.7
20260507191440 66 18 1.0 4.0 0.00 0.24 0.21 37 1008.8
20260507191315 65 295 1.0 4.0 0.00 0.24 0.21 35 1008.7
20260507191227 65 331 2.0 3.0 0.00 0.24 0.21 34 1008.8
20260507191123 65 39 3.0 4.0 0.00 0.24 0.21 36 1008.9
20260507191019 65 21 3.0 4.0 0.00 0.24 0.21 35 1008.7
20260507190930 65 58 3.0 5.0 0.00 0.24 0.21 37 1008.7
20260507190826 65 336 3.0 6.0 0.00 0.24 0.21 37 1008.6
20260507190721 65 319 1.0 3.0 0.00 0.24 0.21 36 1008.7
20260507190617 64 63 2.0 6.0 0.00 0.24 0.21 37 1008.8
20260507190529 65 16 6.0 9.0 0.00 0.24 0.21 34 1008.8
20260507190444 65 31 3.0 4.0 0.00 0.24 0.21 36 1008.8
20260507190320 65 82 2.0 4.0 0.00 0.24 0.21 36 1008.8
20260507190215 64 106 0.0 2.0 0.00 0.24 0.21 37 1008.8
20260507190127 64 124 2.0 5.0 0.00 0.24 0.21 33 1009.0
20260507190023 64 124 4.0 5.0 0.00 0.24 0.21 33 1008.8
20260507185918 64 124 3.0 5.0 0.00 0.24 0.21 33 1009.1
20260507185830 64 149 2.0 6.0 0.00 0.24 0.21 34 1009.0
20260507185726 65 352 4.0 7.0 0.00 0.24 0.21 35 1008.9
20260507185642 65 34 4.0 9.0 0.00 0.24 0.21 34 1009.0
20260507185517 65 30 3.0 5.0 0.00 0.24 0.21 37 1008.9
20260507185429 65 190 1.0 4.0 0.00 0.24 0.21 36 1009.0
20260507185325 65 199 4.0 6.0 0.00 0.24 0.21 34 1008.9
20260507185240 66 193 4.0 7.0 0.00 0.24 0.21 35 1009.0
20260507185116 66 189 3.0 7.0 0.00 0.24 0.21 36 1009.2
20260507185027 65 312 2.0 3.0 0.00 0.24 0.21 36 1009.3
20260507184923 65 227 2.0 4.0 0.00 0.24 0.21 35 1009.0
20260507184819 65 357 2.0 4.0 0.00 0.24 0.21 35 1009.1
20260507184730 65 192 2.0 4.0 0.00 0.24 0.21 36 1009.0
20260507184626 65 84 1.0 4.0 0.00 0.24 0.21 34 1009.2
20260507184541 65 342 5.0 9.0 0.00 0.24 0.21 35 1009.2
20260507184417 65 357 3.0 5.0 0.00 0.24 0.21 36 1009.2
20260507184329 65 251 2.0 3.0 0.00 0.24 0.21 35 1009.1
20260507184224 64 18 2.0 6.0 0.00 0.24 0.21 35 1009.0
20260507184120 64 11 2.0 5.0 0.00 0.24 0.21 35 1009.2
20260507184016 64 17 3.0 7.0 0.00 0.24 0.21 35 1009.1
20260507183927 65 49 5.0 8.0 0.00 0.24 0.21 34 1009.3
20260507183823 65 28 4.0 6.0 0.00 0.24 0.21 36 1009.4
20260507183718 65 18 3.0 6.0 0.00 0.24 0.21 35 1009.2
20260507183630 65 347 3.0 9.0 0.00 0.24 0.21 35 1009.1
20260507183606 65 1 3.0 6.0 0.00 0.24 0.21 35 1009.3
20260507183421 65 318 4.0 6.0 0.00 0.24 0.21 37 1009.2
20260507183317 65 7 4.0 7.0 0.00 0.24 0.21 34 1009.2
20260507183228 65 358 2.0 7.0 0.00 0.24 0.21 37 1009.2
20260507183144 65 353 3.0 5.0 0.00 0.24 0.21 34 1009.2
20260507183020 64 11 3.0 4.0 0.00 0.24 0.21 37 1009.1
20260507182956 65 28 3.0 5.0 0.00 0.24 0.21 34 1009.1
20260507182827 65 62 3.0 4.0 0.00 0.24 0.21 37 1009.2
20260507182723 65 295 2.0 6.0 0.00 0.24 0.21 35 1009.3
20260507182638 66 320 2.0 3.0 0.00 0.24 0.21 34 1009.3
20260507182530 66 207 2.0 4.0 0.00 0.24 0.21 37 1009.3
20260507182425 66 201 3.0 5.0 0.00 0.24 0.21 38 1009.3
20260507182321 66 223 2.0 4.0 0.00 0.24 0.21 35 1009.3
20260507182217 66 75 1.0 2.0 0.00 0.24 0.21 37 1009.3
20260507182128 65 343 0.0 2.0 0.00 0.24 0.21 36 1009.3
20260507182024 65 186 2.0 3.0 0.00 0.24 0.21 38 1009.4
20260507181919 65 196 3.0 4.0 0.00 0.24 0.21 35 1009.3
20260507181815 65 203 1.0 2.0 0.00 0.24 0.21 35 1009.3
20260507181727 65 249 1.0 3.0 0.00 0.24 0.21 35 1009.3
20260507181622 65 235 2.0 3.0 0.00 0.24 0.21 36 1009.3
20260507181518 65 207 2.0 4.0 0.00 0.24 0.21 38 1009.3
20260507181430 65 305 4.0 8.0 0.00 0.24 0.21 36 1009.5
20260507181345 65 340 4.0 5.0 0.00 0.24 0.21 35 1009.5
20260507181221 65 309 5.0 9.0 0.00 0.24 0.21 37 1009.4
20260507181117 65 278 2.0 4.0 0.00 0.24 0.21 36 1009.4
20260507181028 64 203 2.0 3.0 0.00 0.24 0.21 38 1009.3
20260507180924 64 202 1.0 3.0 0.00 0.24 0.21 37 1009.5
20260507180820 64 283 3.0 4.0 0.00 0.24 0.21 36 1009.4
20260507180715 64 311 2.0 4.0 0.00 0.24 0.21 34 1009.5
20260507180627 65 325 3.0 5.0 0.00 0.24 0.21 34 1009.5
20260507180602 65 203 3.0 6.0 0.00 0.24 0.21 38 1009.5
20260507180418 65 339 1.0 3.0 0.00 0.24 0.21 36 1009.7
20260507180350 65 200 1.0 2.0 0.00 0.24 0.21 38 1009.6
20260507180225 64 198 1.0 3.0 0.00 0.24 0.21 36 1009.6
20260507180121 64 174 3.0 4.0 0.00 0.24 0.21 38 1009.7
20260507180016 64 336 3.0 6.0 0.00 0.24 0.21 37 1009.6
20260507175928 64 237 4.0 7.0 0.00 0.24 0.21 37 1009.8
20260507175823 64 3 2.0 4.0 0.00 0.24 0.21 33 1009.8
20260507175719 64 59 2.0 4.0 0.00 0.24 0.21 35 1009.7
20260507175651 64 330 2.0 4.0 0.00 0.24 0.21 35 1009.7
20260507175527 63 35 2.0 3.0 0.00 0.24 0.21 37 1009.7
20260507175442 63 75 3.0 4.0 0.00 0.24 0.21 36 1009.8
20260507175318 63 43 3.0 4.0 0.00 0.24 0.21 34 1009.7
20260507175229 63 167 3.0 5.0 0.00 0.24 0.21 35 1009.7
20260507175125 64 58 4.0 9.0 0.00 0.24 0.21 35 1009.9
20260507175020 64 35 2.0 4.0 0.00 0.24 0.21 35 1009.7
20260507174936 64 5 3.0 4.0 0.00 0.24 0.21 37 1009.8
20260507174828 64 181 1.0 2.0 0.00 0.24 0.21 36 1009.9
20260507174723 63 358 2.0 5.0 0.00 0.24 0.21 37 1010.0
20260507174619 63 323 2.0 5.0 0.00 0.24 0.21 36 1010.0
20260507174531 64 37 3.0 6.0 0.00 0.24 0.21 35 1010.0
20260507174426 64 358 3.0 5.0 0.00 0.24 0.21 35 1010.1
20260507174322 64 352 4.0 6.0 0.00 0.24 0.21 34 1010.0
20260507174217 64 268 3.0 5.0 0.00 0.24 0.21 36 1010.0
20260507174129 65 304 5.0 8.0 0.00 0.24 0.21 34 1010.0
20260507174025 65 327 3.0 5.0 0.00 0.24 0.21 36 1010.0
20260507173920 64 4 2.0 3.0 0.00 0.24 0.21 38 1009.9
20260507173816 64 179 2.0 3.0 0.00 0.24 0.21 36 1010.1
20260507173728 64 32 2.0 4.0 0.00 0.24 0.21 36 1010.0
20260507173623 63 28 2.0 3.0 0.00 0.24 0.21 37 1010.0
20260507173539 63 346 3.0 6.0 0.00 0.24 0.21 35 1010.0
20260507173430 63 329 4.0 8.0 0.00 0.24 0.21 36 1010.2
20260507173326 62 5 3.0 4.0 0.00 0.25 0.21 37 1010.0
20260507173221 62 69 3.0 4.0 0.00 0.25 0.21 34 1009.9
20260507173137 63 64 2.0 6.0 0.00 0.25 0.21 33 1010.1
20260507173028 63 354 3.0 4.0 0.00 0.25 0.21 36 1010.0
20260507172924 63 12 2.0 5.0 0.00 0.25 0.21 35 1010.0
20260507172820 63 341 3.0 4.0 0.00 0.25 0.21 36 1010.2
20260507172715 63 354 3.0 7.0 0.00 0.25 0.21 35 1010.1
20260507172627 63 353 4.0 6.0 0.00 0.25 0.21 35 1010.2
20260507172523 63 4 6.0 7.0 0.00 0.25 0.21 36 1010.2
20260507172418 63 8 3.0 5.0 0.00 0.25 0.21 36 1010.2
20260507172330 64 342 3.0 7.0 0.00 0.25 0.21 35 1010.1
20260507172226 64 145 2.0 5.0 0.00 0.25 0.21 37 1009.9
20260507172121 63 320 3.0 5.0 0.00 0.25 0.21 38 1010.0
20260507172017 63 296 1.0 5.0 0.00 0.26 0.21 37 1010.0
20260507171929 63 308 2.0 4.0 0.00 0.26 0.21 37 1010.1
20260507171824 63 340 2.0 4.0 0.00 0.26 0.21 37 1010.2
20260507171720 63 76 2.0 3.0 0.00 0.26 0.21 35 1010.3
20260507171616 63 41 1.0 4.0 0.00 0.26 0.21 38 1010.2
20260507171527 62 282 2.0 4.0 0.00 0.26 0.21 38 1010.2
20260507171423 62 24 2.0 4.0 0.00 0.26 0.21 37 1010.4
20260507171339 62 311 2.0 4.0 0.00 0.27 0.21 37 1010.3
20260507171310 62 14 4.0 7.0 0.00 0.27 0.21 37 1010.3
20260507171126 62 35 6.0 7.0 0.00 0.27 0.21 35 1010.4
20260507171041 62 41 4.0 5.0 0.00 0.27 0.21 34 1010.4
20260507170917 63 22 3.0 4.0 0.00 0.27 0.21 35 1010.4
20260507170829 63 55 3.0 4.0 0.00 0.27 0.21 37 1010.3
20260507170724 63 13 2.0 5.0 0.00 0.28 0.21 37 1010.3
20260507170620 62 54 3.0 5.0 0.00 0.28 0.21 37 1010.3
20260507170535 63 203 2.0 4.0 0.00 0.28 0.21 38 1010.4
20260507170427 62 238 2.0 3.0 0.00 0.28 0.21 38 1010.4
20260507170323 62 191 2.0 4.0 0.00 0.28 0.21 39 1010.4
20260507170258 62 299 2.0 5.0 0.00 0.28 0.21 37 1010.6
20260507170150 62 323 3.0 5.0 0.00 0.28 0.21 38 1010.5
20260507170026 62 29 5.0 10.0 0.00 0.28 0.21 37 1010.5
20260507165921 62 26 3.0 4.0 0.00 0.28 0.21 37 1010.7
20260507165817 62 316 2.0 4.0 0.00 0.28 0.21 37 1010.6
20260507165728 62 28 3.0 7.0 0.00 0.28 0.21 36 1010.6
20260507165644 63 330 5.0 7.0 0.00 0.28 0.21 36 1010.4
20260507165520 63 324 5.0 8.0 0.00 0.29 0.21 37 1010.4
20260507165415 62 3 2.0 4.0 0.00 0.29 0.21 38 1010.5
20260507165327 62 35 2.0 4.0 0.00 0.29 0.21 36 1010.4
20260507165223 63 73 2.0 4.0 0.00 0.29 0.21 36 1010.4
20260507165138 62 71 2.0 3.0 0.00 0.29 0.21 40 1010.5
20260507165050 62 15 2.0 4.0 0.00 0.29 0.21 40 1010.6
20260507164926 62 48 2.0 6.0 0.00 0.29 0.21 38 1010.5
20260507164821 62 56 5.0 9.0 0.00 0.29 0.21 36 1010.7
20260507164717 62 333 2.0 3.0 0.00 0.29 0.21 39 1010.6
20260507164649 63 50 3.0 4.0 0.00 0.29 0.21 37 1010.7
20260507164524 63 2 3.0 5.0 0.00 0.29 0.21 38 1010.7
20260507164420 63 44 2.0 3.0 0.00 0.29 0.21 39 1010.7
20260507164335 63 340 2.0 6.0 0.00 0.29 0.21 37 1010.7
20260507164227 62 302 1.0 2.0 0.00 0.30 0.21 41 1010.6
20260507164123 62 35 3.0 5.0 0.00 0.30 0.21 39 1010.7
20260507164018 62 248 2.0 3.0 0.00 0.30 0.21 38 1010.8
20260507163930 62 177 2.0 4.0 0.00 0.30 0.21 37 1010.9
20260507163826 61 351 3.0 6.0 0.00 0.30 0.21 38 1010.6
20260507163721 61 357 2.0 4.0 0.00 0.30 0.21 37 1010.8
20260507163617 62 355 3.0 6.0 0.00 0.30 0.21 37 1010.8
20260507163529 61 347 2.0 4.0 0.00 0.30 0.21 38 1010.7
20260507163424 61 10 3.0 5.0 0.00 0.31 0.21 38 1010.8
20260507163320 61 35 3.0 9.0 0.00 0.31 0.21 40 1010.8
20260507163256 62 54 6.0 10.0 0.00 0.31 0.21 36 1010.9
20260507163127 62 347 4.0 6.0 0.00 0.31 0.21 37 1010.9
20260507163023 62 39 3.0 4.0 0.00 0.31 0.21 38 1010.8
20260507162918 62 295 3.0 7.0 0.00 0.31 0.21 38 1010.9
20260507162830 62 5 3.0 5.0 0.00 0.31 0.21 37 1010.8
20260507162726 62 35 4.0 6.0 0.00 0.31 0.21 37 1010.8
20260507162621 62 49 6.0 8.0 0.00 0.32 0.21 36 1010.7
20260507162517 62 348 3.0 7.0 0.00 0.32 0.21 40 1010.8
20260507162429 62 341 3.0 6.0 0.00 0.32 0.21 40 1010.8
20260507162344 62 39 4.0 7.0 0.00 0.32 0.21 39 1010.9
20260507162240 62 125 3.0 4.0 0.00 0.32 0.21 39 1010.8
20260507162116 62 5 2.0 4.0 0.00 0.33 0.21 40 1011.0
20260507162047 62 351 3.0 5.0 0.00 0.33 0.21 43 1010.7
20260507161923 62 352 3.0 4.0 0.00 0.33 0.21 41 1010.7
20260507161818 62 331 3.0 6.0 0.00 0.33 0.21 41 1010.7
20260507161730 62 346 3.0 6.0 0.00 0.33 0.21 40 1010.8
20260507161626 62 101 1.0 3.0 0.00 0.33 0.21 40 1010.8
20260507161521 62 358 3.0 4.0 0.00 0.33 0.21 38 1010.8
20260507161417 63 342 3.0 5.0 0.00 0.34 0.21 39 1011.0
20260507161329 63 231 1.0 3.0 0.00 0.34 0.21 40 1010.8
20260507161224 63 294 2.0 3.0 0.00 0.34 0.21 41 1010.8
20260507161120 62 344 2.0 4.0 0.00 0.35 0.21 42 1010.8
20260507161036 62 171 2.0 2.0 0.00 0.35 0.21 43 1010.9
20260507160927 62 316 2.0 5.0 0.00 0.35 0.21 41 1011.1
20260507160823 62 284 3.0 7.0 0.00 0.35 0.21 44 1011.3
20260507160719 62 49 4.0 5.0 0.00 0.35 0.21 39 1011.2
20260507160630 62 27 3.0 4.0 0.00 0.35 0.21 42 1011.1
20260507160526 62 218 1.0 2.0 0.00 0.35 0.21 44 1011.1
20260507160421 62 169 1.0 2.0 0.00 0.36 0.21 42 1011.0
20260507160317 61 325 2.0 4.0 0.00 0.36 0.21 42 1011.1
20260507160229 61 298 1.0 3.0 0.00 0.36 0.21 45 1011.0
20260507160144 62 308 3.0 7.0 0.00 0.36 0.21 41 1011.1
20260507160040 61 33 2.0 3.0 0.00 0.36 0.21 44 1011.3
20260507155915 61 8 2.0 4.0 0.00 0.36 0.21 42 1011.2
20260507155827 61 227 2.0 4.0 0.00 0.37 0.21 43 1011.2
20260507155723 61 350 2.0 5.0 0.00 0.37 0.21 43 1011.2
20260507155618 62 24 4.0 5.0 0.00 0.37 0.21 42 1011.3
20260507155530 62 317 3.0 8.0 0.00 0.37 0.21 43 1011.2
20260507155426 61 327 3.0 6.0 0.00 0.37 0.21 46 1011.0
20260507155321 61 46 3.0 6.0 0.00 0.37 0.21 45 1011.1
20260507155217 61 64 4.0 6.0 0.00 0.37 0.21 44 1011.2
20260507155129 60 90 4.0 4.0 0.00 0.37 0.21 46 1011.2
20260507155024 60 67 4.0 6.0 0.00 0.37 0.21 43 1011.1
20260507154920 60 56 3.0 5.0 0.00 0.37 0.21 44 1011.3
20260507154816 60 93 4.0 6.0 0.00 0.37 0.21 42 1011.4
20260507154728 61 94 3.0 4.0 0.00 0.37 0.21 44 1011.3
20260507154623 61 188 4.0 7.0 0.00 0.37 0.21 46 1011.4
20260507154519 60 214 2.0 2.0 0.00 0.37 0.21 46 1011.3
20260507154430 60 146 2.0 3.0 0.00 0.37 0.21 43 1011.4
20260507154326 60 65 2.0 4.0 0.00 0.37 0.21 43 1011.3
20260507154221 60 347 4.0 6.0 0.00 0.37 0.21 44 1011.4
20260507154137 60 60 3.0 5.0 0.00 0.37 0.21 46 1011.5
20260507154029 60 21 3.0 6.0 0.00 0.37 0.21 42 1011.5
20260507153924 60 42 3.0 5.0 0.00 0.37 0.21 45 1011.5
20260507153820 61 16 3.0 5.0 0.00 0.37 0.21 44 1011.4
20260507153716 61 46 3.0 6.0 0.00 0.37 0.21 44 1011.5
20260507153627 61 43 2.0 3.0 0.00 0.37 0.21 45 1011.7
20260507153523 61 299 2.0 7.0 0.00 0.37 0.21 45 1011.6
20260507153418 61 61 4.0 6.0 0.00 0.37 0.21 44 1011.6
20260507153330 61 57 2.0 3.0 0.00 0.37 0.21 46 1011.3
20260507153226 61 354 3.0 5.0 0.00 0.37 0.21 44 1011.7
20260507153202 61 332 2.0 3.0 0.00 0.37 0.21 45 1011.4
20260507153017 61 306 3.0 4.0 0.00 0.37 0.21 47 1011.6
20260507152929 61 53 2.0 5.0 0.00 0.37 0.21 43 1011.5
20260507152905 61 8 3.0 5.0 0.00 0.37 0.21 44 1011.6
20260507152720 61 331 4.0 5.0 0.00 0.37 0.21 48 1011.6
20260507152615 60 56 1.0 1.0 0.00 0.37 0.21 48 1011.5
20260507152527 60 158 2.0 4.0 0.00 0.37 0.21 47 1011.4
20260507152443 60 182 2.0 4.0 0.00 0.37 0.21 46 1011.5
20260507152339 60 220 2.0 3.0 0.00 0.37 0.21 47 1011.5
20260507152230 60 279 2.0 4.0 0.00 0.37 0.21 48 1011.5
20260507152146 60 209 1.0 4.0 0.00 0.37 0.21 48 1011.5
20260507152021 60 48 4.0 6.0 0.00 0.37 0.21 46 1011.7
20260507151917 60 353 2.0 3.0 0.00 0.37 0.21 47 1011.7
20260507151849 60 115 3.0 6.0 0.00 0.37 0.21 47 1011.6
20260507151724 60 52 2.0 4.0 0.00 0.37 0.21 46 1011.6
20260507151640 60 36 3.0 5.0 0.00 0.37 0.21 48 1011.9
20260507151515 60 24 1.0 3.0 0.00 0.37 0.21 48 1011.7
20260507151427 60 16 2.0 4.0 0.00 0.37 0.21 47 1011.6
20260507151323 59 29 2.0 4.0 0.00 0.37 0.21 46 1011.7
20260507151218 59 27 2.0 6.0 0.00 0.37 0.21 47 1011.9
20260507151130 59 359 4.0 6.0 0.00 0.37 0.21 48 1011.7
20260507151026 59 48 4.0 8.0 0.00 0.37 0.21 49 1011.6
20260507150921 59 22 3.0 5.0 0.00 0.37 0.21 47 1011.8
20260507150817 59 67 3.0 4.0 0.00 0.37 0.21 47 1011.8
20260507150729 59 64 3.0 5.0 0.00 0.37 0.21 49 1011.7
20260507150624 59 36 3.0 5.0 0.00 0.37 0.21 50 1011.7
20260507150520 59 28 3.0 5.0 0.00 0.37 0.21 47 1011.7
20260507150415 59 15 4.0 8.0 0.00 0.37 0.21 47 1011.9
20260507150327 59 0 4.0 9.0 0.00 0.37 0.21 46 1011.8
20260507150223 60 359 3.0 7.0 0.00 0.37 0.21 47 1012.0
20260507150118 60 360 5.0 7.0 0.00 0.37 0.21 48 1011.9
20260507150030 60 40 3.0 4.0 0.00 0.37 0.21 49 1011.9
20260507145926 60 330 1.0 3.0 0.00 0.37 0.21 47 1011.8
20260507145821 60 330 1.0 4.0 0.00 0.37 0.21 47 1011.9
20260507145717 59 360 2.0 4.0 0.00 0.37 0.21 50 1011.9
20260507145629 59 26 3.0 3.0 0.00 0.37 0.21 48 1011.7
20260507145524 59 33 2.0 4.0 0.00 0.37 0.21 49 1012.0
20260507145420 59 0 4.0 10.0 0.00 0.37 0.21 47 1011.9
20260507145335 59 69 5.0 10.0 0.00 0.37 0.21 48 1011.8
20260507145227 59 32 2.0 4.0 0.00 0.37 0.21 51 1011.8
20260507145123 59 65 2.0 3.0 0.00 0.37 0.21 55 1011.9
20260507145019 58 53 2.0 3.0 0.00 0.37 0.21 51 1011.9
20260507144930 59 47 3.0 7.0 0.00 0.37 0.21 51 1012.1
20260507144826 59 37 4.0 8.0 0.00 0.37 0.21 52 1012.0
20260507144722 59 47 3.0 5.0 0.00 0.37 0.21 50 1011.9
20260507144617 59 28 2.0 4.0 0.00 0.37 0.21 50 1012.1
20260507144529 59 266 2.0 4.0 0.00 0.37 0.21 52 1012.0
20260507144445 59 260 3.0 6.0 0.00 0.37 0.21 51 1012.1
20260507144320 59 45 4.0 6.0 0.00 0.37 0.21 50 1012.0
20260507144216 60 343 3.0 5.0 0.00 0.37 0.21 54 1012.1
20260507144127 59 350 3.0 5.0 0.00 0.37 0.21 52 1011.7
20260507144023 59 52 2.0 4.0 0.00 0.37 0.21 54 1012.0
20260507143919 59 8 2.0 3.0 0.00 0.37 0.21 52 1012.0
20260507143830 59 47 2.0 4.0 0.00 0.37 0.21 54 1011.9
20260507143726 59 43 2.0 4.0 0.00 0.37 0.21 53 1011.9
20260507143621 58 351 2.0 4.0 0.00 0.37 0.21 54 1011.9
20260507143517 58 349 2.0 4.0 0.00 0.37 0.21 53 1011.9
20260507143429 58 140 3.0 6.0 0.00 0.37 0.21 54 1012.1
20260507143324 58 21 3.0 5.0 0.00 0.37 0.21 53 1012.1
20260507143220 58 42 4.0 6.0 0.00 0.37 0.21 52 1011.8
20260507143115 58 40 2.0 4.0 0.00 0.37 0.21 54 1012.0
20260507143027 58 58 3.0 7.0 0.00 0.37 0.21 52 1012.1
20260507142923 58 46 4.0 7.0 0.00 0.37 0.21 55 1012.1
20260507142819 58 48 2.0 3.0 0.00 0.37 0.21 55 1011.7
20260507142730 58 358 4.0 9.0 0.00 0.37 0.21 54 1011.9
20260507142626 58 293 3.0 5.0 0.00 0.37 0.21 55 1012.0
20260507142541 58 54 3.0 6.0 0.00 0.37 0.21 54 1012.1
20260507142417 58 30 2.0 3.0 0.00 0.37 0.21 57 1011.8
20260507142349 57 204 2.0 5.0 0.00 0.37 0.21 57 1011.9
20260507142224 57 345 3.0 4.0 0.00 0.37 0.21 58 1012.1
20260507142120 57 328 3.0 4.0 0.00 0.37 0.21 57 1011.8
20260507142016 57 352 4.0 8.0 0.00 0.37 0.21 55 1012.0
20260507141927 58 16 3.0 5.0 0.00 0.37 0.21 56 1012.0
20260507141823 58 311 3.0 5.0 0.00 0.37 0.21 58 1012.1
20260507141718 58 24 3.0 6.0 0.00 0.37 0.21 58 1012.1
20260507141630 58 324 2.0 6.0 0.00 0.37 0.21 58 1011.9
20260507141525 57 212 2.0 4.0 0.00 0.37 0.21 60 1012.1
20260507141421 57 58 2.0 3.0 0.00 0.37 0.21 60 1011.8
20260507141316 57 41 1.0 2.0 0.00 0.37 0.21 61 1012.0
20260507141228 57 332 2.0 6.0 0.00 0.37 0.21 61 1012.0
20260507141124 57 352 3.0 6.0 0.00 0.37 0.21 60 1012.1
20260507141019 57 50 2.0 4.0 0.00 0.37 0.21 59 1012.1
20260507140915 57 12 4.0 9.0 0.00 0.37 0.21 59 1012.0
20260507140827 57 46 4.0 9.0 0.00 0.37 0.21 62 1012.1
20260507140742 56 336 2.0 6.0 0.00 0.37 0.21 61 1011.9
20260507140618 56 303 3.0 4.0 0.00 0.37 0.21 61 1012.1
20260507140530 56 260 2.0 4.0 0.00 0.37 0.21 61 1012.0
20260507140425 56 341 3.0 6.0 0.00 0.37 0.21 62 1012.1
20260507140341 56 335 2.0 5.0 0.00 0.37 0.21 63 1012.1
20260507140217 56 358 3.0 4.0 0.00 0.37 0.21 62 1012.0
20260507140148 56 340 2.0 4.0 0.00 0.37 0.21 63 1011.9
20260507140024 56 323 2.0 6.0 0.00 0.37 0.21 64 1012.1
20260507135920 56 342 2.0 5.0 0.00 0.37 0.21 64 1012.1
20260507135815 56 308 2.0 5.0 0.00 0.37 0.21 64 1012.0
20260507135727 56 117 2.0 9.0 0.00 0.37 0.21 64 1012.1
20260507135623 56 2 5.0 12.0 0.00 0.37 0.21 63 1012.1
20260507135518 56 9 4.0 4.0 0.00 0.37 0.21 65 1012.1
20260507135450 56 50 3.0 8.0 0.00 0.37 0.21 65 1012.2
20260507135325 56 53 3.0 7.0 0.00 0.37 0.21 64 1012.1
20260507135221 56 25 2.0 3.0 0.00 0.37 0.21 66 1012.1
20260507135116 56 7 3.0 4.0 0.00 0.37 0.21 67 1012.1
20260507135028 56 46 3.0 4.0 0.00 0.37 0.21 69 1012.0
20260507134924 56 14 1.0 4.0 0.00 0.37 0.21 68 1012.1
20260507134839 56 3 3.0 4.0 0.00 0.37 0.21 67 1012.2
20260507134715 56 41 3.0 6.0 0.00 0.37 0.21 65 1012.1
20260507134627 56 42 3.0 5.0 0.00 0.37 0.21 67 1011.9
20260507134542 56 80 2.0 4.0 0.00 0.37 0.21 68 1012.0
20260507134418 56 326 3.0 5.0 0.00 0.37 0.21 68 1012.0
20260507134330 56 340 2.0 4.0 0.00 0.37 0.21 69 1012.1
20260507134225 56 33 4.0 6.0 0.00 0.37 0.21 68 1012.1
20260507134121 56 67 2.0 4.0 0.00 0.37 0.21 70 1012.0
20260507134017 55 107 2.0 3.0 0.00 0.37 0.21 72 1012.0
20260507133928 55 352 2.0 3.0 0.00 0.37 0.21 71 1012.1
20260507133824 55 343 1.0 4.0 0.00 0.37 0.21 70 1012.1
20260507133739 55 15 3.0 4.0 0.00 0.37 0.21 70 1012.0
20260507133615 55 331 2.0 4.0 0.00 0.37 0.21 71 1012.0
20260507133527 55 355 2.0 5.0 0.00 0.37 0.21 72 1012.0
20260507133422 54 323 3.0 5.0 0.00 0.37 0.21 73 1012.1
20260507133338 54 240 2.0 2.0 0.00 0.37 0.21 73 1012.2
20260507133230 54 33 2.0 4.0 0.00 0.37 0.21 71 1012.2
20260507133125 54 348 2.0 4.0 0.00 0.37 0.21 72 1012.1
20260507133021 54 231 2.0 4.0 0.00 0.37 0.21 72 1011.9
20260507132916 54 355 4.0 8.0 0.00 0.37 0.21 73 1012.1
20260507132828 55 23 3.0 8.0 0.00 0.37 0.21 75 1012.1
20260507132724 54 34 2.0 4.0 0.00 0.37 0.21 76 1011.9
20260507132619 54 38 3.0 5.0 0.00 0.37 0.21 75 1012.2
20260507132515 54 209 2.0 3.0 0.00 0.37 0.21 76 1012.1
20260507132427 54 154 1.0 2.0 0.00 0.37 0.21 76 1012.0
20260507132322 53 52 2.0 6.0 0.00 0.37 0.21 73 1012.2
20260507132218 54 46 2.0 7.0 0.00 0.37 0.21 73 1012.3
20260507132129 54 51 5.0 7.0 0.00 0.37 0.21 73 1012.1
20260507132025 54 39 4.0 5.0 0.00 0.37 0.21 74 1012.0
20260507131921 54 13 2.0 3.0 0.00 0.37 0.21 76 1012.2
20260507131816 54 44 3.0 3.0 0.00 0.37 0.21 75 1012.1
20260507131728 54 47 1.0 3.0 0.00 0.37 0.21 75 1012.2
20260507131624 54 42 2.0 3.0 0.00 0.37 0.21 76 1012.2
20260507131519 54 34 2.0 2.0 0.00 0.37 0.21 77 1012.2
20260507131431 54 31 3.0 4.0 0.00 0.37 0.21 77 1012.2
20260507131326 54 45 2.0 3.0 0.00 0.37 0.21 78 1012.3
20260507131221 53 49 1.0 2.0 0.00 0.37 0.21 78 1012.2
20260507131117 53 333 1.0 4.0 0.00 0.37 0.21 78 1012.2
20260507131028 53 85 2.0 2.0 0.00 0.37 0.21 80 1012.1
20260507130923 53 5 1.0 2.0 0.00 0.37 0.21 78 1012.2
20260507130839 52 18 1.0 2.0 0.00 0.37 0.21 79 1012.2
20260507130730 52 52 1.0 2.0 0.00 0.37 0.21 79 1012.1
20260507130626 52 51 1.0 3.0 0.00 0.37 0.21 79 1012.1
20260507130521 52 349 2.0 3.0 0.00 0.37 0.21 80 1012.3
20260507130416 52 338 2.0 3.0 0.00 0.37 0.21 79 1012.1
20260507130328 52 332 3.0 4.0 0.00 0.37 0.21 79 1012.3
20260507130303 52 282 1.0 4.0 0.00 0.37 0.21 81 1012.3
20260507130118 52 23 2.0 2.0 0.00 0.37 0.21 81 1012.1
20260507130030 52 70 2.0 2.0 0.00 0.37 0.21 81 1012.2
20260507125926 52 46 2.0 3.0 0.00 0.37 0.21 81 1012.0
20260507125841 52 8 2.0 3.0 0.00 0.37 0.21 81 1012.2
20260507125717 52 55 1.0 2.0 0.00 0.37 0.21 81 1012.1
20260507125629 52 324 3.0 5.0 0.00 0.37 0.21 81 1012.3
20260507125524 52 19 2.0 4.0 0.00 0.37 0.21 82 1012.2
20260507125440 52 35 1.0 2.0 0.00 0.37 0.21 83 1012.1
20260507125316 51 54 1.0 4.0 0.00 0.37 0.21 83 1012.1
20260507125227 51 34 1.0 3.0 0.00 0.37 0.21 83 1012.3
20260507125123 51 67 0.0 2.0 0.00 0.37 0.21 83 1012.2
20260507125018 51 13 1.0 3.0 0.00 0.37 0.21 83 1012.3
20260507124930 51 81 1.0 4.0 0.00 0.37 0.21 83 1012.3
20260507124846 51 52 1.0 2.0 0.00 0.37 0.21 84 1012.1
20260507124721 51 9 2.0 2.0 0.00 0.37 0.21 84 1012.1
20260507124617 51 220 1.0 2.0 0.00 0.37 0.21 85 1012.0
20260507124529 51 347 2.0 3.0 0.00 0.37 0.21 85 1012.0
20260507124424 51 54 1.0 2.0 0.00 0.37 0.21 85 1012.0
20260507124340 51 208 0.0 2.0 0.00 0.37 0.21 85 1012.2
20260507124236 51 9 2.0 2.0 0.00 0.37 0.21 85 1012.0
20260507124127 51 350 2.0 3.0 0.00 0.37 0.21 85 1012.1
20260507124043 51 332 2.0 3.0 0.00 0.37 0.21 85 1012.1
20260507123918 51 356 2.0 3.0 0.00 0.37 0.21 85 1012.1
20260507123830 51 2 2.0 3.0 0.00 0.37 0.21 85 1012.1
20260507123726 51 31 1.0 3.0 0.00 0.37 0.21 85 1012.2
20260507123621 51 316 1.0 2.0 0.00 0.37 0.21 86 1012.3
20260507123557 51 18 2.0 4.0 0.00 0.37 0.21 86 1012.4
20260507123448 51 55 2.0 3.0 0.00 0.37 0.21 86 1012.1
20260507123324 51 9 2.0 2.0 0.00 0.37 0.21 87 1012.4
20260507123220 51 27 1.0 2.0 0.00 0.37 0.21 87 1012.3
20260507123116 51 39 0.0 2.0 0.00 0.37 0.21 87 1012.2
20260507123047 51 18 0.0 3.0 0.00 0.37 0.21 87 1012.2
20260507122923 51 49 1.0 3.0 0.00 0.37 0.21 87 1012.3
20260507122838 51 89 1.0 2.0 0.00 0.37 0.21 87 1012.2
20260507122730 50 281 1.0 4.0 0.00 0.37 0.21 87 1012.3
20260507122626 50 18 1.0 3.0 0.00 0.37 0.21 87 1012.2
20260507122521 51 17 1.0 2.0 0.00 0.37 0.21 88 1012.1
20260507122417 50 53 2.0 2.0 0.00 0.37 0.21 88 1012.2
20260507122329 50 55 1.0 2.0 0.00 0.37 0.21 88 1012.2
20260507122224 50 77 1.0 2.0 0.00 0.37 0.21 88 1012.2
20260507122120 50 1 0.0 2.0 0.00 0.37 0.21 88 1012.2
20260507122015 50 320 2.0 5.0 0.00 0.37 0.21 88 1012.2
20260507121927 50 147 2.0 3.0 0.00 0.37 0.21 89 1012.1
20260507121823 50 29 2.0 4.0 0.00 0.37 0.21 89 1012.2
20260507121718 50 35 2.0 3.0 0.00 0.37 0.21 89 1012.3
20260507121630 50 83 1.0 2.0 0.00 0.37 0.21 89 1012.3
20260507121546 50 159 1.0 2.0 0.00 0.37 0.21 89 1012.1
20260507121421 50 163 1.0 2.0 0.00 0.37 0.21 89 1012.3
20260507121317 50 0.0 2.0 0.00 0.37 0.21 89 1012.3
20260507121228 50 350 1.0 2.0 0.00 0.37 0.21 89 1012.2
20260507121144 50 73 2.0 2.0 0.00 0.37 0.21 89 1012.2
20260507121019 50 153 1.0 2.0 0.00 0.37 0.21 89 1012.1
20260507120915 50 30 1.0 2.0 0.00 0.37 0.21 89 1012.2
20260507120826 50 59 1.0 2.0 0.00 0.37 0.21 90 1012.2
20260507120722 50 161 1.0 3.0 0.00 0.37 0.21 90 1012.1
20260507120618 50 325 2.0 4.0 0.00 0.37 0.21 90 1012.1
20260507120530 50 348 2.0 4.0 0.00 0.37 0.21 91 1012.1
20260507120425 50 86 1.0 3.0 0.00 0.37 0.21 91 1012.1
20260507120341 50 216 1.0 2.0 0.00 0.37 0.21 91 1012.3
20260507120216 50 316 1.0 2.0 0.00 0.37 0.21 91 1012.2
20260507120128 50 99 1.0 2.0 0.00 0.37 0.21 91 1012.2
20260507120024 50 19 1.0 2.0 0.00 0.37 0.21 91 1012.1
20260507115919 50 47 0.0 2.0 0.00 0.37 0.21 91 1012.2
20260507115831 50 108 1.0 2.0 0.00 0.37 0.21 91 1012.2
20260507115726 50 100 1.0 2.0 0.00 0.37 0.21 91 1012.3
20260507115642 50 50 0.0 2.0 0.00 0.37 0.21 91 1012.2
20260507115518 50 151 1.0 2.0 0.00 0.37 0.21 91 1012.1
20260507115429 50 21 1.0 2.0 0.00 0.37 0.21 91 1012.1
20260507115325 50 347 0.0 2.0 0.00 0.37 0.21 91 1011.9
20260507115220 50 16 0.0 2.0 0.00 0.37 0.21 91 1012.0
20260507115116 50 150 0.0 2.0 0.00 0.37 0.21 91 1011.9
20260507115028 50 354 0.0 2.0 0.00 0.37 0.21 91 1012.0
20260507114923 50 153 1.0 2.0 0.00 0.37 0.21 91 1011.8
20260507114819 50 146 1.0 2.0 0.00 0.37 0.21 91 1012.1
20260507114731 50 137 1.0 2.0 0.00 0.37 0.21 91 1012.1
20260507114626 50 112 0.0 2.0 0.00 0.37 0.21 91 1012.1
20260507114522 50 131 1.0 2.0 0.00 0.37 0.21 91 1012.0
20260507114417 49 51 0.0 2.0 0.00 0.37 0.21 91 1012.1
20260507114329 49 101 0.0 2.0 0.00 0.37 0.21 91 1011.8
20260507114244 50 157 1.0 2.0 0.00 0.37 0.21 92 1012.0
20260507114120 50 336 1.0 2.0 0.00 0.37 0.21 92 1012.0
20260507114016 49 119 0.0 2.0 0.00 0.37 0.21 92 1012.0
20260507113927 49 152 2.0 2.0 0.00 0.37 0.21 92 1011.9
20260507113823 49 116 0.0 2.0 0.00 0.37 0.21 92 1011.9
20260507113719 49 39 0.0 2.0 0.00 0.37 0.21 92 1011.9
20260507113650 49 57 1.0 1.0 0.00 0.37 0.21 92 1011.8
20260507113546 49 0.0 2.0 0.00 0.37 0.21 92 1011.8
20260507113441 49 141 2.0 2.0 0.00 0.37 0.21 92 1011.8
20260507113317 49 91 1.0 2.0 0.00 0.37 0.21 92 1011.9
20260507113229 49 111 1.0 2.0 0.00 0.37 0.21 92 1011.6
20260507113124 49 35 1.0 2.0 0.00 0.37 0.21 92 1011.6
20260507113020 49 291 0.0 2.0 0.00 0.37 0.21 92 1011.8
20260507112915 49 66 0.0 2.0 0.00 0.37 0.21 92 1011.9
20260507112827 49 103 1.0 2.0 0.00 0.37 0.21 92 1011.9
20260507112723 49 154 2.0 2.0 0.00 0.37 0.21 92 1011.9
20260507112618 49 128 0.0 2.0 0.00 0.37 0.21 92 1011.9
20260507112530 49 162 2.0 2.0 0.00 0.37 0.21 92 1011.8
20260507112446 49 160 1.0 2.0 0.00 0.37 0.21 92 1011.9
20260507112341 49 0.0 2.0 0.00 0.37 0.21 92 1011.8
20260507112217 49 157 1.0 2.0 0.00 0.37 0.21 92 1011.8
20260507112129 49 153 1.0 2.0 0.00 0.37 0.21 92 1011.6
20260507112024 49 13 2.0 2.0 0.00 0.37 0.21 92 1011.5
20260507111920 49 0.0 1.0 0.00 0.37 0.21 92 1011.5
20260507111816 49 135 1.0 2.0 0.00 0.37 0.21 92 1011.6
20260507111727 49 39 0.0 2.0 0.00 0.37 0.21 92 1011.5
20260507111623 49 75 0.0 1.0 0.00 0.37 0.21 92 1011.7
20260507111519 49 127 1.0 2.0 0.00 0.37 0.21 92 1011.6